Time,TemperatureF,DewpointF,PressureIn,WindDirection,WindDirectionDegrees,WindSpeedMPH,WindSpeedGustMPH,Humidity,HourlyPrecipIn,Conditions,Clouds,dailyrainin,SoftwareType,DateUTC
2013-02-18 00:00:00,28.2,17.8,30.13,SSE,147,0.0,0.0,65,0.00,,SCT200,0.00,VWS V14.01,2013-02-18 05:00:00,
2013-02-18 00:01:00,28.2,17.8,30.13,SSE,147,0.0,0.0,65,0.00,,SCT200,0.00,VWS V14.01,2013-02-18 05:01:00,
2013-02-18 00:02:00,28.0,17.7,30.13,SSE,147,0.0,0.0,65,0.00,,SCT200,0.00,VWS V14.01,2013-02-18 05:02:00,
2013-02-18 00:03:00,28.0,17.7,30.13,SSE,147,0.0,0.0,65,0.00,,,0.00,VWS V14.01,2013-02-18 05:03:00,
2013-02-18 00:04:00,28.0,17.7,30.13,SSE,147,0.0,0.0,65,0.00,,,0.00,VWS V14.01,2013-02-18 05:04:00,
2013-02-18 00:05:00,28.0,17.7,30.13,SSE,147,0.0,0.0,65,0.00,,,0.00,VWS V14.01,2013-02-18 05:05:00,
2013-02-18 00:06:00,28.0,17.7,30.13,SSE,147,0.0,0.0,65,0.00,,,0.00,VWS V14.01,2013-02-18 05:06:00,
2013-02-18 00:07:00,28.0,17.7,30.13,SSE,147,0.0,0.0,65,0.00,,SCT200,0.00,VWS V14.01,2013-02-18 05:07:00,
2013-02-18 00:08:00,28.0,17.7,30.13,SSE,147,0.0,0.0,65,0.00,,,0.00,VWS V14.01,2013-02-18 05:08:00,
2013-02-18 00:09:00,28.0,18.3,30.13,SSE,147,0.0,0.0,66,0.00,,,0.00,VWS V14.01,2013-02-18 05:09:00,
2013-02-18 00:10:00,28.0,18.3,30.13,SSE,149,0.0,0.0,66,0.00,,,0.00,VWS V14.01,2013-02-18 05:10:00,
2013-02-18 00:11:00,28.0,18.3,30.13,SSE,147,0.0,0.0,66,0.00,,,0.00,VWS V14.01,2013-02-18 05:11:00,
2013-02-18 00:12:00,27.9,18.1,30.13,SSE,147,0.0,0.0,66,0.00,,SCT200,0.00,VWS V14.01,2013-02-18 05:12:00,
2013-02-18 00:13:00,27.9,18.1,30.13,SSE,147,0.0,0.0,66,0.00,,,0.00,VWS V14.01,2013-02-18 05:13:00,
2013-02-18 00:14:00,27.9,18.1,30.13,SSE,147,0.0,0.0,66,0.00,,,0.00,VWS V14.01,2013-02-18 05:14:00,
2013-02-18 00:15:00,27.9,18.1,30.13,SSE,147,0.0,0.0,66,0.00,,,0.00,VWS V14.01,2013-02-18 05:15:00,
2013-02-18 00:16:00,27.9,18.1,30.13,SSE,147,0.0,0.0,66,0.00,,,0.00,VWS V14.01,2013-02-18 05:16:00,
2013-02-18 00:17:00,27.9,18.1,30.13,SSE,147,0.0,0.0,66,0.00,,SCT200,0.00,VWS V14.01,2013-02-18 05:17:00,
2013-02-18 00:18:00,27.9,18.1,30.13,SSE,147,0.0,0.0,66,0.00,,,0.00,VWS V14.01,2013-02-18 05:18:00,
2013-02-18 00:19:00,27.9,18.1,30.13,SSE,147,0.0,0.0,66,0.00,,,0.00,VWS V14.01,2013-02-18 05:19:00,
2013-02-18 00:20:00,27.9,18.1,30.13,SSE,147,0.0,0.0,66,0.00,,,0.00,VWS V14.01,2013-02-18 05:20:00,
2013-02-18 00:21:00,27.9,18.1,30.13,SSE,147,0.0,0.0,66,0.00,,,0.00,VWS V14.01,2013-02-18 05:21:00,
2013-02-18 00:22:00,27.9,18.1,30.13,SSE,147,0.0,0.0,66,0.00,,SCT200,0.00,VWS V14.01,2013-02-18 05:22:00,
2013-02-18 00:23:00,27.9,18.1,30.13,SSE,147,0.0,0.0,66,0.00,,,0.00,VWS V14.01,2013-02-18 05:23:00,
2013-02-18 00:24:00,27.9,18.1,30.13,SSE,147,0.0,0.0,66,0.00,,,0.00,VWS V14.01,2013-02-18 05:24:00,
2013-02-18 00:25:00,27.9,18.1,30.13,SSE,147,0.0,0.0,66,0.00,,,0.00,VWS V14.01,2013-02-18 05:25:00,
2013-02-18 00:26:00,27.9,18.1,30.13,SSE,147,0.0,0.0,66,0.00,,,0.00,VWS V14.01,2013-02-18 05:26:00,
2013-02-18 00:27:00,27.9,18.1,30.13,SSE,147,0.0,0.0,66,0.00,,SCT200,0.00,VWS V14.01,2013-02-18 05:27:00,
2013-02-18 00:28:00,27.9,18.1,30.13,SSE,147,0.0,0.0,66,0.00,,,0.00,VWS V14.01,2013-02-18 05:28:00,
2013-02-18 00:29:00,27.7,17.9,30.13,SSE,147,0.0,0.0,66,0.00,,,0.00,VWS V14.01,2013-02-18 05:29:00,
2013-02-18 00:31:00,27.7,17.9,30.13,SSE,147,0.0,0.0,66,0.00,,,0.00,VWS V14.01,2013-02-18 05:31:00,
2013-02-18 00:32:00,27.9,18.1,30.13,SSE,147,0.0,0.0,66,0.00,,SCT200,0.00,VWS V14.01,2013-02-18 05:32:00,
2013-02-18 00:33:00,27.9,18.1,30.13,SSE,147,0.0,0.0,66,0.00,,,0.00,VWS V14.01,2013-02-18 05:33:00,
2013-02-18 00:34:00,27.9,18.1,30.13,SSE,147,0.0,0.0,66,0.00,,,0.00,VWS V14.01,2013-02-18 05:34:00,
2013-02-18 00:35:00,27.9,18.1,30.13,SSE,147,0.0,0.0,66,0.00,,,0.00,VWS V14.01,2013-02-18 05:35:00,
2013-02-18 00:36:00,27.9,18.1,30.13,SSE,148,0.0,0.0,66,0.00,,,0.00,VWS V14.01,2013-02-18 05:36:00,
2013-02-18 00:37:00,27.9,18.1,30.13,SSE,147,0.0,0.0,66,0.00,,BKN200,0.00,VWS V14.01,2013-02-18 05:37:00,
2013-02-18 00:38:00,27.9,18.1,30.13,SSE,147,0.0,0.0,66,0.00,,,0.00,VWS V14.01,2013-02-18 05:38:00,
2013-02-18 00:39:00,27.9,18.7,30.13,SSE,147,0.0,0.0,68,0.00,,,0.00,VWS V14.01,2013-02-18 05:39:00,
2013-02-18 00:40:00,27.9,18.7,30.13,SSE,147,0.0,0.0,68,0.00,,,0.00,VWS V14.01,2013-02-18 05:40:00,
2013-02-18 00:41:00,27.9,18.7,30.13,SSE,147,0.0,0.0,68,0.00,,,0.00,VWS V14.01,2013-02-18 05:41:00,
2013-02-18 00:42:00,27.9,18.7,30.13,SSE,147,0.0,0.0,68,0.00,,BKN200,0.00,VWS V14.01,2013-02-18 05:42:00,
2013-02-18 00:43:00,27.9,18.7,30.13,SE,146,0.0,0.0,68,0.00,,,0.00,VWS V14.01,2013-02-18 05:43:00,
2013-02-18 00:44:00,27.9,18.7,30.13,SSE,147,0.0,0.0,68,0.00,,,0.00,VWS V14.01,2013-02-18 05:44:00,
2013-02-18 00:45:00,27.9,18.7,30.13,SSE,147,0.0,0.0,68,0.00,,,0.00,VWS V14.01,2013-02-18 05:45:00,
2013-02-18 00:46:00,27.9,18.7,30.13,SSE,147,0.0,0.0,68,0.00,,,0.00,VWS V14.01,2013-02-18 05:46:00,
2013-02-18 00:47:00,27.9,18.7,30.13,SSW,207,3.7,5.6,68,0.00,,BKN200,0.00,VWS V14.01,2013-02-18 05:47:00,
2013-02-18 00:48:00,27.9,18.7,30.13,SSW,207,4.4,5.6,68,0.00,,,0.00,VWS V14.01,2013-02-18 05:48:00,
2013-02-18 00:49:00,27.9,18.7,30.13,SSW,207,3.7,5.6,68,0.00,,,0.00,VWS V14.01,2013-02-18 05:49:00,
2013-02-18 00:50:00,27.9,18.7,30.13,SE,143,3.7,5.6,68,0.00,,,0.00,VWS V14.01,2013-02-18 05:50:00,
2013-02-18 00:51:00,27.9,18.7,30.13,SE,143,3.7,5.6,68,0.00,,,0.00,VWS V14.01,2013-02-18 05:51:00,
2013-02-18 00:52:00,27.9,18.7,30.13,SE,124,5.9,7.5,68,0.00,,BKN200,0.00,VWS V14.01,2013-02-18 05:52:00,
2013-02-18 00:53:00,27.9,18.7,30.13,SE,143,0.0,4.7,68,0.00,,,0.00,VWS V14.01,2013-02-18 05:53:00,
2013-02-18 00:54:00,27.9,18.7,30.13,SE,124,5.9,7.5,68,0.00,,,0.00,VWS V14.01,2013-02-18 05:54:00,
2013-02-18 00:55:00,27.9,18.7,30.13,South,179,5.9,7.5,68,0.00,,,0.00,VWS V14.01,2013-02-18 05:55:00,
2013-02-18 00:56:00,27.9,18.7,30.13,SE,135,0.0,7.5,68,0.00,,,0.00,VWS V14.01,2013-02-18 05:56:00,
2013-02-18 00:57:00,27.9,18.7,30.13,SE,135,0.0,0.0,68,0.00,,BKN200,0.00,VWS V14.01,2013-02-18 05:57:00,
2013-02-18 00:58:00,27.9,18.7,30.13,SE,135,0.0,0.0,68,0.00,,,0.00,VWS V14.01,2013-02-18 05:58:00,
2013-02-18 00:59:00,27.9,18.7,30.13,SE,136,0.0,0.0,68,0.00,,,0.00,VWS V14.01,2013-02-18 05:59:00,
2013-02-18 01:00:00,27.9,18.7,30.13,South,178,5.9,7.5,68,0.00,,,0.00,VWS V14.01,2013-02-18 06:00:00,
2013-02-18 01:01:00,27.9,18.7,30.13,South,178,0.0,7.5,68,0.00,,,0.00,VWS V14.01,2013-02-18 06:01:00,
2013-02-18 01:02:00,27.9,18.7,30.13,South,178,0.0,0.0,68,0.00,,BKN200,0.00,VWS V14.01,2013-02-18 06:02:00,
2013-02-18 01:03:00,27.9,18.7,30.13,South,178,0.0,0.0,68,0.00,,,0.00,VWS V14.01,2013-02-18 06:03:00,
2013-02-18 01:04:00,27.9,18.7,30.13,South,178,0.0,0.0,68,0.00,,,0.00,VWS V14.01,2013-02-18 06:04:00,
2013-02-18 01:05:00,27.9,18.7,30.13,South,178,0.0,0.0,68,0.00,,,0.00,VWS V14.01,2013-02-18 06:05:00,
2013-02-18 01:06:00,27.9,18.7,30.13,South,178,0.0,0.0,68,0.00,,,0.00,VWS V14.01,2013-02-18 06:06:00,
2013-02-18 01:07:00,27.9,18.7,30.13,SE,139,0.0,0.0,68,0.00,,,0.00,VWS V14.01,2013-02-18 06:07:00,
2013-02-18 01:08:00,27.9,19.3,30.13,SE,140,3.7,8.5,70,0.00,,BKN200,0.00,VWS V14.01,2013-02-18 06:08:00,
2013-02-18 01:09:00,27.9,19.3,30.13,SE,140,3.7,8.5,70,0.00,,,0.00,VWS V14.01,2013-02-18 06:09:00,
2013-02-18 01:10:00,27.9,19.3,30.13,SE,142,0.0,4.7,70,0.00,,,0.00,VWS V14.01,2013-02-18 06:10:00,
2013-02-18 01:11:00,27.9,19.3,30.13,SE,142,0.0,0.0,70,0.00,,,0.00,VWS V14.01,2013-02-18 06:11:00,
2013-02-18 01:12:00,27.9,19.3,30.13,SE,130,4.4,8.5,70,0.00,,,0.00,VWS V14.01,2013-02-18 06:12:00,
2013-02-18 01:13:00,27.9,19.3,30.10,SSW,193,0.0,5.6,70,0.00,,BKN200,0.00,VWS V14.01,2013-02-18 06:13:00,
2013-02-18 01:14:00,27.9,19.3,30.10,SSW,192,4.4,6.6,70,0.00,,,0.00,VWS V14.01,2013-02-18 06:14:00,
2013-02-18 01:15:00,27.9,19.3,30.10,South,191,0.0,5.6,70,0.00,,,0.00,VWS V14.01,2013-02-18 06:15:00,
2013-02-18 01:16:00,27.9,19.3,30.10,SSW,192,0.0,0.0,70,0.00,,,0.00,VWS V14.01,2013-02-18 06:16:00,
2013-02-18 01:17:00,27.9,19.3,30.10,South,191,0.0,7.5,70,0.00,,,0.00,VWS V14.01,2013-02-18 06:17:00,
2013-02-18 01:18:00,28.0,19.4,30.10,SSW,192,0.0,5.6,70,0.00,,BKN200,0.00,VWS V14.01,2013-02-18 06:18:00,
2013-02-18 01:19:00,28.0,19.4,30.10,SSW,192,4.4,6.6,70,0.00,,BKN250,0.00,VWS V14.01,2013-02-18 06:19:00,
2013-02-18 01:20:00,28.0,19.4,30.10,South,185,6.6,8.5,70,0.00,,,0.00,VWS V14.01,2013-02-18 06:20:00,
2013-02-18 01:21:00,28.0,19.4,30.10,SSE,155,5.9,8.5,70,0.00,,,0.00,VWS V14.01,2013-02-18 06:21:00,
2013-02-18 01:22:00,28.0,19.4,30.10,SE,140,4.4,7.5,70,0.00,,,0.00,VWS V14.01,2013-02-18 06:22:00,
2013-02-18 01:23:00,28.2,19.6,30.10,SSE,164,4.4,5.6,70,0.00,,BKN200,0.00,VWS V14.01,2013-02-18 06:23:00,
2013-02-18 01:24:00,28.2,19.6,30.10,SSE,164,4.4,8.5,70,0.00,,,0.00,VWS V14.01,2013-02-18 06:24:00,
2013-02-18 01:25:00,28.2,19.6,30.10,SSE,164,3.7,5.6,70,0.00,,,0.00,VWS V14.01,2013-02-18 06:25:00,
2013-02-18 01:26:00,28.2,19.6,30.10,SSE,164,5.2,6.6,70,0.00,,,0.00,VWS V14.01,2013-02-18 06:26:00,
2013-02-18 01:27:00,28.2,19.6,30.10,SSE,164,4.4,7.5,70,0.00,,,0.00,VWS V14.01,2013-02-18 06:27:00,
2013-02-18 01:28:00,28.4,19.8,30.10,ESE,117,5.2,6.6,70,0.00,,BKN200,0.00,VWS V14.01,2013-02-18 06:28:00,
2013-02-18 01:29:00,28.2,19.6,30.10,SSE,164,3.7,5.6,70,0.00,,,0.00,VWS V14.01,2013-02-18 06:29:00,
2013-02-18 01:30:00,28.4,19.8,30.10,SE,141,5.2,8.5,70,0.00,,,0.00,VWS V14.01,2013-02-18 06:30:00,
2013-02-18 01:31:00,28.4,19.8,30.10,SE,129,6.6,8.5,70,0.00,,,0.00,VWS V14.01,2013-02-18 06:31:00,
2013-02-18 01:32:00,28.4,19.8,30.10,SSE,153,4.4,8.5,70,0.00,,,0.00,VWS V14.01,2013-02-18 06:32:00,
2013-02-18 01:33:00,28.4,19.8,30.10,SSE,153,0.0,5.6,70,0.00,,BKN200,0.00,VWS V14.01,2013-02-18 06:33:00,
2013-02-18 01:34:00,28.4,19.8,30.10,SSE,156,4.4,5.6,70,0.00,,,0.00,VWS V14.01,2013-02-18 06:34:00,
2013-02-18 01:35:00,28.4,19.8,30.10,SE,146,0.0,5.6,70,0.00,,,0.00,VWS V14.01,2013-02-18 06:35:00,
2013-02-18 01:36:00,28.4,19.8,30.10,SSE,153,0.0,0.0,70,0.00,,,0.00,VWS V14.01,2013-02-18 06:36:00,
2013-02-18 01:37:00,28.6,20.0,30.10,SSE,168,4.4,5.6,70,0.00,,,0.00,VWS V14.01,2013-02-18 06:37:00,
2013-02-18 01:38:00,28.6,20.0,30.10,SSE,168,3.7,4.7,70,0.00,,SCT200,0.00,VWS V14.01,2013-02-18 06:38:00,
2013-02-18 01:39:00,28.6,20.0,30.10,South,169,3.7,7.5,70,0.00,,,0.00,VWS V14.01,2013-02-18 06:39:00,
2013-02-18 01:40:00,28.6,20.0,30.10,South,169,4.4,5.6,70,0.00,,,0.00,VWS V14.01,2013-02-18 06:40:00,
2013-02-18 01:41:00,28.6,20.0,30.10,SE,125,5.9,7.5,70,0.00,,,0.00,VWS V14.01,2013-02-18 06:41:00,
2013-02-18 01:42:00,28.6,20.0,30.10,SSW,200,5.9,7.5,70,0.00,,,0.00,VWS V14.01,2013-02-18 06:42:00,
2013-02-18 01:43:00,28.6,20.0,30.10,South,179,4.4,5.6,70,0.00,,SCT200,0.00,VWS V14.01,2013-02-18 06:43:00,
2013-02-18 01:44:00,28.6,20.0,30.10,South,179,3.7,6.6,70,0.00,,,0.00,VWS V14.01,2013-02-18 06:44:00,
2013-02-18 01:45:00,28.6,20.0,30.10,South,179,4.4,5.6,70,0.00,,,0.00,VWS V14.01,2013-02-18 06:45:00,
2013-02-18 01:46:00,28.6,20.0,30.10,SE,130,8.9,11.3,70,0.00,,,0.00,VWS V14.01,2013-02-18 06:46:00,
2013-02-18 01:47:00,28.6,20.0,30.10,SE,136,5.2,11.3,70,0.00,,,0.00,VWS V14.01,2013-02-18 06:47:00,
2013-02-18 01:48:00,28.6,20.0,30.10,SSE,165,4.4,8.5,70,0.00,,SCT200,0.00,VWS V14.01,2013-02-18 06:48:00,
2013-02-18 01:49:00,28.6,20.0,30.10,SSE,151,6.6,8.5,70,0.00,,,0.00,VWS V14.01,2013-02-18 06:49:00,
2013-02-18 01:50:00,28.6,20.0,30.10,SSE,165,3.7,8.5,70,0.00,,,0.00,VWS V14.01,2013-02-18 06:50:00,
2013-02-18 01:51:00,28.6,20.0,30.10,SSE,156,5.2,6.6,70,0.00,,,0.00,VWS V14.01,2013-02-18 06:51:00,
2013-02-18 01:52:00,28.6,20.0,30.10,SSE,156,4.4,7.5,70,0.00,,,0.00,VWS V14.01,2013-02-18 06:52:00,
2013-02-18 01:53:00,28.8,20.1,30.10,SSE,158,5.2,8.5,70,0.00,,SCT200,0.00,VWS V14.01,2013-02-18 06:53:00,
2013-02-18 01:54:00,28.8,20.1,30.10,SSE,162,6.6,8.5,70,0.00,,,0.00,VWS V14.01,2013-02-18 06:54:00,
2013-02-18 01:55:00,28.8,20.1,30.10,SSE,158,5.2,8.5,70,0.00,,,0.00,VWS V14.01,2013-02-18 06:55:00,
2013-02-18 01:56:00,28.8,20.1,30.10,SSE,158,4.4,6.6,70,0.00,,,0.00,VWS V14.01,2013-02-18 06:56:00,
2013-02-18 01:57:00,28.8,20.1,30.10,SSE,158,4.4,7.5,70,0.00,,,0.00,VWS V14.01,2013-02-18 06:57:00,
2013-02-18 01:58:00,28.8,20.1,30.10,SSE,162,3.7,6.6,70,0.00,,SCT200,0.00,VWS V14.01,2013-02-18 06:58:00,
2013-02-18 01:59:00,28.8,20.1,30.10,SSE,162,5.2,6.6,70,0.00,,,0.00,VWS V14.01,2013-02-18 06:59:00,
2013-02-18 02:00:00,28.8,20.1,30.10,SSE,162,4.4,6.6,70,0.00,,,0.00,VWS V14.01,2013-02-18 07:00:00,
2013-02-18 02:01:00,28.8,20.1,30.10,SE,140,3.7,8.5,70,0.00,,,0.00,VWS V14.01,2013-02-18 07:01:00,
2013-02-18 02:02:00,28.8,20.1,30.10,SE,140,4.4,6.6,70,0.00,,,0.00,VWS V14.01,2013-02-18 07:02:00,
2013-02-18 02:03:00,28.8,20.1,30.10,SSE,157,5.2,6.6,70,0.00,,SCT200,0.00,VWS V14.01,2013-02-18 07:03:00,
2013-02-18 02:04:00,28.8,20.1,30.10,SSE,157,5.2,11.3,70,0.00,,,0.00,VWS V14.01,2013-02-18 07:04:00,
2013-02-18 02:05:00,28.8,20.1,30.10,SSE,157,5.2,6.6,70,0.00,,,0.00,VWS V14.01,2013-02-18 07:05:00,
2013-02-18 02:06:00,28.8,20.1,30.10,SSE,157,4.4,6.6,70,0.00,,,0.00,VWS V14.01,2013-02-18 07:06:00,
2013-02-18 02:07:00,28.8,20.1,30.10,SSE,147,5.2,6.6,70,0.00,,,0.00,VWS V14.01,2013-02-18 07:07:00,
2013-02-18 02:08:00,28.9,20.3,30.10,South,171,5.2,6.6,70,0.00,,SCT200,0.00,VWS V14.01,2013-02-18 07:08:00,
2013-02-18 02:09:00,28.9,20.3,30.10,SSE,166,4.4,7.5,70,0.00,,,0.00,VWS V14.01,2013-02-18 07:09:00,
2013-02-18 02:10:00,28.9,20.3,30.10,South,171,5.2,6.6,70,0.00,,,0.00,VWS V14.01,2013-02-18 07:10:00,
2013-02-18 02:11:00,28.8,20.1,30.10,SSE,166,4.4,6.6,70,0.00,,,0.00,VWS V14.01,2013-02-18 07:11:00,
2013-02-18 02:12:00,28.9,20.3,30.10,SSE,166,4.4,5.6,70,0.00,,,0.00,VWS V14.01,2013-02-18 07:12:00,
2013-02-18 02:13:00,28.9,20.3,30.10,SE,138,4.4,6.6,70,0.00,,SCT200,0.00,VWS V14.01,2013-02-18 07:13:00,
2013-02-18 02:14:00,28.9,20.3,30.10,SE,138,5.2,6.6,70,0.00,,,0.00,VWS V14.01,2013-02-18 07:14:00,
2013-02-18 02:15:00,28.9,20.3,30.10,SE,138,5.2,6.6,70,0.00,,,0.00,VWS V14.01,2013-02-18 07:15:00,
2013-02-18 02:16:00,28.9,20.3,30.10,SE,140,6.6,8.5,70,0.00,,,0.00,VWS V14.01,2013-02-18 07:16:00,
2013-02-18 02:17:00,28.9,20.3,30.10,SE,143,4.4,8.5,70,0.00,,,0.00,VWS V14.01,2013-02-18 07:17:00,
2013-02-18 02:18:00,28.9,20.3,30.10,SSE,147,3.7,6.6,70,0.00,,SCT200,0.00,VWS V14.01,2013-02-18 07:18:00,
2013-02-18 02:19:00,28.9,20.3,30.10,SE,146,5.2,8.5,70,0.00,,,0.00,VWS V14.01,2013-02-18 07:19:00,
2013-02-18 02:20:00,28.9,20.3,30.10,SSE,147,3.7,6.6,70,0.00,,,0.00,VWS V14.01,2013-02-18 07:20:00,
2013-02-18 02:21:00,28.9,20.3,30.10,SE,129,4.4,6.6,70,0.00,,,0.00,VWS V14.01,2013-02-18 07:21:00,
2013-02-18 02:22:00,29.1,20.5,30.10,SE,129,3.7,5.6,70,0.00,,,0.00,VWS V14.01,2013-02-18 07:22:00,
2013-02-18 02:23:00,29.1,20.5,30.10,SE,130,0.0,4.7,70,0.00,,,0.00,VWS V14.01,2013-02-18 07:23:00,
2013-02-18 02:24:00,29.1,20.5,30.10,SE,124,4.4,5.6,70,0.00,,SCT200,0.00,VWS V14.01,2013-02-18 07:24:00,
2013-02-18 02:25:00,29.1,20.5,30.10,SE,124,4.4,5.6,70,0.00,,,0.00,VWS V14.01,2013-02-18 07:25:00,
2013-02-18 02:26:00,29.1,20.5,30.10,SSE,149,5.9,7.5,70,0.00,,,0.00,VWS V14.01,2013-02-18 07:26:00,
2013-02-18 02:27:00,29.1,20.5,30.10,SSE,154,5.2,8.5,70,0.00,,,0.00,VWS V14.01,2013-02-18 07:27:00,
2013-02-18 02:28:00,29.1,20.5,30.10,SE,141,5.9,7.5,70,0.00,,,0.00,VWS V14.01,2013-02-18 07:28:00,
2013-02-18 02:29:00,29.1,20.5,30.10,South,176,3.7,6.6,70,0.00,,SCT200,0.00,VWS V14.01,2013-02-18 07:29:00,
2013-02-18 02:30:00,29.1,20.5,30.10,South,176,5.2,7.5,70,0.00,,,0.00,VWS V14.01,2013-02-18 07:30:00,
2013-02-18 02:31:00,29.1,20.5,30.10,South,176,5.2,6.6,70,0.00,,,0.00,VWS V14.01,2013-02-18 07:31:00,
2013-02-18 02:32:00,29.1,20.5,30.10,SE,145,6.6,8.5,70,0.00,,,0.00,VWS V14.01,2013-02-18 07:32:00,
2013-02-18 02:33:00,29.1,20.5,30.10,ESE,106,4.4,8.5,70,0.00,,,0.00,VWS V14.01,2013-02-18 07:33:00,
2013-02-18 02:34:00,29.1,20.5,30.10,SSE,151,5.2,6.6,70,0.00,,SCT200,0.00,VWS V14.01,2013-02-18 07:34:00,
2013-02-18 02:35:00,29.1,20.5,30.10,SSE,151,5.2,6.6,70,0.00,,,0.00,VWS V14.01,2013-02-18 07:35:00,
2013-02-18 02:36:00,29.3,20.6,30.10,SSE,156,4.4,6.6,70,0.00,,,0.00,VWS V14.01,2013-02-18 07:36:00,
2013-02-18 02:37:00,29.3,20.6,30.10,SSE,155,0.0,5.6,70,0.00,,,0.00,VWS V14.01,2013-02-18 07:37:00,
2013-02-18 02:38:00,29.3,20.6,30.10,SSE,155,4.4,5.6,70,0.00,,,0.00,VWS V14.01,2013-02-18 07:38:00,
2013-02-18 02:39:00,29.3,20.6,30.10,SSE,156,0.0,0.0,70,0.00,,FEW200,0.00,VWS V14.01,2013-02-18 07:39:00,
2013-02-18 02:40:00,29.3,20.6,30.10,SSE,156,0.0,0.0,70,0.00,,,0.00,VWS V14.01,2013-02-18 07:40:00,
2013-02-18 02:41:00,29.3,20.6,30.10,SSE,156,0.0,0.0,70,0.00,,,0.00,VWS V14.01,2013-02-18 07:41:00,
2013-02-18 02:42:00,29.3,20.6,30.07,SSE,155,6.6,8.5,70,0.00,,,0.00,VWS V14.01,2013-02-18 07:42:00,
2013-02-18 02:43:00,29.3,20.6,30.07,SSE,157,4.4,8.5,70,0.00,,,0.00,VWS V14.01,2013-02-18 07:43:00,
2013-02-18 02:44:00,29.1,20.5,30.07,SE,138,4.4,5.6,70,0.00,,FEW200,0.00,VWS V14.01,2013-02-18 07:44:00,
2013-02-18 02:45:00,29.1,20.5,30.07,SE,138,4.4,7.5,70,0.00,,,0.00,VWS V14.01,2013-02-18 07:45:00,
2013-02-18 02:46:00,29.1,20.5,30.07,SE,140,3.7,5.6,70,0.00,,,0.00,VWS V14.01,2013-02-18 07:46:00,
2013-02-18 02:47:00,29.1,20.5,30.07,ESE,116,5.9,7.5,70,0.00,,,0.00,VWS V14.01,2013-02-18 07:47:00,
2013-02-18 02:48:00,29.1,20.5,30.07,SE,136,4.4,10.3,70,0.00,,,0.00,VWS V14.01,2013-02-18 07:48:00,
2013-02-18 02:49:00,29.1,20.5,30.07,SE,143,3.7,4.7,70,0.00,,FEW200,0.00,VWS V14.01,2013-02-18 07:49:00,
2013-02-18 02:50:00,29.1,20.5,30.07,SE,143,3.7,6.6,70,0.00,,,0.00,VWS V14.01,2013-02-18 07:50:00,
2013-02-18 02:51:00,29.3,20.6,30.07,SE,143,5.2,6.6,70,0.00,,,0.00,VWS V14.01,2013-02-18 07:51:00,
2013-02-18 02:52:00,29.3,20.6,30.07,SSE,161,4.4,8.5,70,0.00,,,0.00,VWS V14.01,2013-02-18 07:52:00,
2013-02-18 02:53:00,29.3,20.6,30.07,SSE,160,0.0,5.6,70,0.00,,,0.00,VWS V14.01,2013-02-18 07:53:00,
2013-02-18 02:54:00,29.1,20.5,30.07,SSE,160,4.4,5.6,70,0.00,,FEW200,0.00,VWS V14.01,2013-02-18 07:54:00,
2013-02-18 02:55:00,29.3,20.6,30.07,SSE,160,0.0,0.0,70,0.00,,,0.00,VWS V14.01,2013-02-18 07:55:00,
2013-02-18 02:56:00,29.1,20.5,30.07,SSE,160,5.2,6.6,70,0.00,,,0.00,VWS V14.01,2013-02-18 07:56:00,
2013-02-18 02:57:00,29.1,20.5,30.07,SSE,148,4.4,6.6,70,0.00,,,0.00,VWS V14.01,2013-02-18 07:57:00,
2013-02-18 02:58:00,29.1,20.5,30.07,SE,144,4.4,6.6,70,0.00,,,0.00,VWS V14.01,2013-02-18 07:58:00,
2013-02-18 02:59:00,29.1,20.5,30.07,SE,144,4.4,6.6,70,0.00,,FEW200,0.00,VWS V14.01,2013-02-18 07:59:00,
2013-02-18 03:00:00,29.1,20.5,30.07,SE,143,5.2,6.6,70,0.00,,,0.00,VWS V14.01,2013-02-18 08:00:00,
2013-02-18 03:01:00,29.1,20.5,30.07,South,174,8.1,10.3,70,0.00,,,0.00,VWS V14.01,2013-02-18 08:01:00,
2013-02-18 03:02:00,29.1,20.5,30.07,South,174,3.7,10.3,70,0.00,,,0.00,VWS V14.01,2013-02-18 08:02:00,
2013-02-18 03:03:00,29.1,20.5,30.07,SE,132,6.6,8.5,70,0.00,,,0.00,VWS V14.01,2013-02-18 08:03:00,
2013-02-18 03:04:00,29.3,20.6,30.07,SSE,168,4.4,6.6,70,0.00,,FEW200,0.00,VWS V14.01,2013-02-18 08:04:00,
2013-02-18 03:05:00,29.3,20.6,30.07,SSE,167,4.4,7.5,70,0.00,,,0.00,VWS V14.01,2013-02-18 08:05:00,
2013-02-18 03:06:00,29.3,20.6,30.07,SSE,168,5.2,6.6,70,0.00,,,0.00,VWS V14.01,2013-02-18 08:06:00,
2013-02-18 03:07:00,29.3,20.6,30.07,SSE,168,4.4,6.6,70,0.00,,,0.00,VWS V14.01,2013-02-18 08:07:00,
2013-02-18 03:08:00,29.3,20.6,30.07,SSE,168,4.4,5.6,70,0.00,,,0.00,VWS V14.01,2013-02-18 08:08:00,
2013-02-18 03:09:00,29.3,20.6,30.07,South,175,0.0,7.5,70,0.00,,FEW200,0.00,VWS V14.01,2013-02-18 08:09:00,
2013-02-18 03:10:00,29.3,20.6,30.07,South,175,5.9,7.5,70,0.00,,,0.00,VWS V14.01,2013-02-18 08:10:00,
2013-02-18 03:11:00,29.3,20.6,30.07,South,175,4.4,7.5,70,0.00,,,0.00,VWS V14.01,2013-02-18 08:11:00,
2013-02-18 03:12:00,29.3,20.6,30.07,SE,145,5.2,7.5,70,0.00,,,0.00,VWS V14.01,2013-02-18 08:12:00,
2013-02-18 03:13:00,29.3,20.6,30.07,South,169,4.4,6.6,70,0.00,,,0.00,VWS V14.01,2013-02-18 08:13:00,
2013-02-18 03:14:00,29.3,20.6,30.07,SSE,159,3.7,6.6,70,0.00,,FEW200,0.00,VWS V14.01,2013-02-18 08:14:00,
2013-02-18 03:15:00,29.3,20.6,30.07,SSE,159,5.2,8.5,70,0.00,,,0.00,VWS V14.01,2013-02-18 08:15:00,
2013-02-18 03:16:00,29.3,20.6,30.07,SSE,159,3.7,6.6,70,0.00,,,0.00,VWS V14.01,2013-02-18 08:16:00,
2013-02-18 03:17:00,29.3,20.6,30.07,South,181,3.7,7.5,70,0.00,,,0.00,VWS V14.01,2013-02-18 08:17:00,
2013-02-18 03:18:00,29.1,20.5,30.07,SSE,155,5.9,7.5,70,0.00,,,0.00,VWS V14.01,2013-02-18 08:18:00,
2013-02-18 03:19:00,29.1,20.5,30.07,South,185,5.2,6.6,70,0.00,,FEW200,0.00,VWS V14.01,2013-02-18 08:19:00,
2013-02-18 03:20:00,29.1,20.5,30.07,South,183,3.7,4.7,70,0.00,,,0.00,VWS V14.01,2013-02-18 08:20:00,
2013-02-18 03:21:00,29.1,20.5,30.07,SSE,166,6.6,8.5,70,0.00,,,0.00,VWS V14.01,2013-02-18 08:21:00,
2013-02-18 03:22:00,29.1,20.5,30.07,SSE,166,4.4,8.5,70,0.00,,,0.00,VWS V14.01,2013-02-18 08:22:00,
2013-02-18 03:23:00,29.1,20.5,30.07,SSE,161,4.4,8.5,70,0.00,,,0.00,VWS V14.01,2013-02-18 08:23:00,
2013-02-18 03:24:00,29.1,20.5,30.07,South,186,4.4,8.5,70,0.00,,FEW200,0.00,VWS V14.01,2013-02-18 08:24:00,
2013-02-18 03:25:00,29.1,20.5,30.07,SSE,166,4.4,5.6,70,0.00,,,0.00,VWS V14.01,2013-02-18 08:25:00,
2013-02-18 03:26:00,29.1,20.5,30.07,South,186,4.4,8.5,70,0.00,,,0.00,VWS V14.01,2013-02-18 08:26:00,
2013-02-18 03:27:00,29.1,20.5,30.07,South,190,5.2,7.5,70,0.00,,,0.00,VWS V14.01,2013-02-18 08:27:00,
2013-02-18 03:28:00,29.1,20.5,30.07,South,190,5.2,6.6,70,0.00,,,0.00,VWS V14.01,2013-02-18 08:28:00,
2013-02-18 03:29:00,29.1,20.5,30.07,SSE,148,3.7,10.3,70,0.00,,FEW200,0.00,VWS V14.01,2013-02-18 08:29:00,
2013-02-18 03:30:00,29.1,20.5,30.07,SE,143,6.6,8.5,70,0.00,,,0.00,VWS V14.01,2013-02-18 08:30:00,
2013-02-18 03:31:00,29.1,20.5,30.07,SSE,148,3.7,10.3,70,0.00,,,0.00,VWS V14.01,2013-02-18 08:31:00,
2013-02-18 03:32:00,29.1,20.5,30.07,SSE,166,3.7,5.6,70,0.00,,,0.00,VWS V14.01,2013-02-18 08:32:00,
2013-02-18 03:33:00,29.1,20.5,30.07,SSE,166,3.7,4.7,70,0.00,,,0.00,VWS V14.01,2013-02-18 08:33:00,
2013-02-18 03:34:00,29.1,20.5,30.07,SSE,166,5.2,6.6,70,0.00,,,0.00,VWS V14.01,2013-02-18 08:34:00,
2013-02-18 03:35:00,29.1,20.5,30.07,South,177,5.2,10.3,70,0.00,,FEW200,0.00,VWS V14.01,2013-02-18 08:35:00,
2013-02-18 03:36:00,29.1,20.5,30.07,South,177,5.2,10.3,70,0.00,,,0.00,VWS V14.01,2013-02-18 08:36:00,
2013-02-18 03:37:00,28.9,20.3,30.07,SSE,153,4.4,7.5,70,0.00,,,0.00,VWS V14.01,2013-02-18 08:37:00,
2013-02-18 03:38:00,28.9,20.3,30.07,SSE,153,0.0,5.6,70,0.00,,,0.00,VWS V14.01,2013-02-18 08:38:00,
2013-02-18 03:39:00,28.9,20.3,30.07,SSE,153,3.7,4.7,70,0.00,,,0.00,VWS V14.01,2013-02-18 08:39:00,
2013-02-18 03:40:00,28.9,20.3,30.07,SE,145,3.7,8.5,70,0.00,,FEW200,0.00,VWS V14.01,2013-02-18 08:40:00,
2013-02-18 03:41:00,28.9,20.3,30.07,SE,145,6.6,12.2,70,0.00,,,0.00,VWS V14.01,2013-02-18 08:41:00,
2013-02-18 03:42:00,28.9,20.3,30.07,SSE,149,3.7,8.5,70,0.00,,,0.00,VWS V14.01,2013-02-18 08:42:00,
2013-02-18 03:43:00,28.9,20.3,30.07,SSE,149,4.4,5.6,70,0.00,,,0.00,VWS V14.01,2013-02-18 08:43:00,
2013-02-18 03:44:00,28.9,20.3,30.07,SSE,164,4.4,10.3,70,0.00,,,0.00,VWS V14.01,2013-02-18 08:44:00,
2013-02-18 03:45:00,28.9,20.3,30.07,SE,145,3.7,5.6,70,0.00,,FEW200,0.00,VWS V14.01,2013-02-18 08:45:00,
2013-02-18 03:46:00,28.9,20.3,30.07,SE,145,4.4,8.5,70,0.00,,,0.00,VWS V14.01,2013-02-18 08:46:00,
2013-02-18 03:47:00,28.9,20.3,30.07,SE,145,0.0,5.6,70,0.00,,,0.00,VWS V14.01,2013-02-18 08:47:00,
2013-02-18 03:48:00,28.9,20.3,30.07,SSE,166,3.7,7.5,70,0.00,,,0.00,VWS V14.01,2013-02-18 08:48:00,
2013-02-18 03:49:00,28.9,20.3,30.07,SSE,147,4.4,6.6,70,0.00,,,0.00,VWS V14.01,2013-02-18 08:49:00,
2013-02-18 03:50:00,28.9,20.3,30.07,SSE,159,4.4,5.6,70,0.00,,FEW200,0.00,VWS V14.01,2013-02-18 08:50:00,
2013-02-18 03:51:00,28.9,20.3,30.07,SSE,159,3.7,7.5,70,0.00,,,0.00,VWS V14.01,2013-02-18 08:51:00,
2013-02-18 03:52:00,28.9,20.3,30.07,SSE,158,4.4,7.5,70,0.00,,,0.00,VWS V14.01,2013-02-18 08:52:00,
2013-02-18 03:53:00,28.9,20.3,30.07,SSE,157,4.4,7.5,70,0.00,,,0.00,VWS V14.01,2013-02-18 08:53:00,
2013-02-18 03:54:00,28.9,20.3,30.07,SSE,157,3.7,6.6,70,0.00,,,0.00,VWS V14.01,2013-02-18 08:54:00,
2013-02-18 03:55:00,29.1,20.5,30.04,SSE,157,3.7,5.6,70,0.00,,FEW200,0.00,VWS V14.01,2013-02-18 08:55:00,
2013-02-18 03:56:00,29.1,20.5,30.07,SSE,157,4.4,5.6,70,0.00,,,0.00,VWS V14.01,2013-02-18 08:56:00,
2013-02-18 03:57:00,29.1,20.5,30.04,SSE,164,5.2,6.6,70,0.00,,,0.00,VWS V14.01,2013-02-18 08:57:00,
2013-02-18 03:58:00,28.9,20.3,30.04,SSE,162,4.4,7.5,70,0.00,,BKN250,0.00,VWS V14.01,2013-02-18 08:58:00,
2013-02-18 03:59:00,28.9,20.3,30.04,SSE,162,4.4,5.6,70,0.00,,,0.00,VWS V14.01,2013-02-18 08:59:00,
2013-02-18 04:00:00,28.9,20.3,30.04,SSE,165,5.2,6.6,70,0.00,,FEW200,0.00,VWS V14.01,2013-02-18 09:00:00,
2013-02-18 04:01:00,28.9,20.3,30.04,SSE,165,4.4,7.5,70,0.00,,,0.00,VWS V14.01,2013-02-18 09:01:00,
2013-02-18 04:02:00,28.9,20.3,30.04,SSE,165,3.7,6.6,70,0.00,,,0.00,VWS V14.01,2013-02-18 09:02:00,
2013-02-18 04:03:00,28.9,20.9,30.04,SSE,162,5.2,7.5,71,0.00,,,0.00,VWS V14.01,2013-02-18 09:03:00,
2013-02-18 04:04:00,29.1,21.0,30.04,SE,133,5.2,11.3,71,0.00,,,0.00,VWS V14.01,2013-02-18 09:04:00,
2013-02-18 04:05:00,29.1,21.0,30.04,SSE,149,6.6,8.5,71,0.00,,FEW200,0.00,VWS V14.01,2013-02-18 09:05:00,
2013-02-18 04:06:00,29.1,21.0,30.04,SE,146,5.9,10.3,71,0.00,,,0.00,VWS V14.01,2013-02-18 09:06:00,
2013-02-18 04:07:00,29.1,21.0,30.04,SSE,149,4.4,8.5,71,0.00,,,0.00,VWS V14.01,2013-02-18 09:07:00,
2013-02-18 04:08:00,29.1,21.0,30.04,SSE,154,5.2,8.5,71,0.00,,,0.00,VWS V14.01,2013-02-18 09:08:00,
2013-02-18 04:09:00,29.1,21.0,30.04,SSE,154,4.4,6.6,71,0.00,,,0.00,VWS V14.01,2013-02-18 09:09:00,
2013-02-18 04:10:00,29.3,21.2,30.04,South,173,4.4,8.5,71,0.00,,FEW200,0.00,VWS V14.01,2013-02-18 09:10:00,
2013-02-18 04:11:00,29.3,21.2,30.04,South,183,4.4,6.6,71,0.00,,,0.00,VWS V14.01,2013-02-18 09:11:00,
2013-02-18 04:12:00,29.3,21.2,30.04,South,169,5.9,8.5,71,0.00,,,0.00,VWS V14.01,2013-02-18 09:12:00,
2013-02-18 04:13:00,29.3,21.2,30.04,ESE,117,8.9,11.3,71,0.00,,,0.00,VWS V14.01,2013-02-18 09:13:00,
2013-02-18 04:14:00,29.3,21.2,30.04,SSE,158,5.9,11.3,71,0.00,,,0.00,VWS V14.01,2013-02-18 09:14:00,
2013-02-18 04:15:00,29.5,21.4,30.04,South,170,4.4,5.6,71,0.00,,FEW200,0.00,VWS V14.01,2013-02-18 09:15:00,
2013-02-18 04:16:00,29.5,21.4,30.04,SSE,158,4.4,10.3,71,0.00,,,0.00,VWS V14.01,2013-02-18 09:16:00,
2013-02-18 04:17:00,29.5,21.4,30.04,South,177,6.6,8.5,71,0.00,,,0.00,VWS V14.01,2013-02-18 09:17:00,
2013-02-18 04:18:00,29.5,21.4,30.04,SSE,166,4.4,8.5,71,0.00,,,0.00,VWS V14.01,2013-02-18 09:18:00,
2013-02-18 04:19:00,29.5,21.4,30.04,SSE,162,5.2,6.6,71,0.00,,,0.00,VWS V14.01,2013-02-18 09:19:00,
2013-02-18 04:20:00,29.5,21.4,30.04,SSE,159,10.3,13.2,71,0.00,,FEW200,0.00,VWS V14.01,2013-02-18 09:20:00,
2013-02-18 04:21:00,29.5,21.4,30.04,SSE,161,5.2,7.5,71,0.00,,,0.00,VWS V14.01,2013-02-18 09:21:00,
2013-02-18 04:22:00,29.5,21.4,30.04,SSE,159,10.3,13.2,71,0.00,,,0.00,VWS V14.01,2013-02-18 09:22:00,
2013-02-18 04:23:00,29.5,21.4,30.04,South,186,6.6,13.2,71,0.00,,,0.00,VWS V14.01,2013-02-18 09:23:00,
2013-02-18 04:24:00,29.5,21.4,30.04,South,185,5.2,8.5,71,0.00,,,0.00,VWS V14.01,2013-02-18 09:24:00,
2013-02-18 04:25:00,29.5,21.4,30.04,SSE,158,5.2,6.6,71,0.00,,FEW200,0.00,VWS V14.01,2013-02-18 09:25:00,
2013-02-18 04:26:00,29.5,21.4,30.04,South,181,3.7,7.5,71,0.00,,,0.00,VWS V14.01,2013-02-18 09:26:00,
2013-02-18 04:27:00,29.5,21.4,30.04,SSE,158,5.2,6.6,71,0.00,,,0.00,VWS V14.01,2013-02-18 09:27:00,
2013-02-18 04:28:00,29.5,21.4,30.04,South,172,6.6,8.5,71,0.00,,,0.00,VWS V14.01,2013-02-18 09:28:00,
2013-02-18 04:29:00,29.7,21.6,30.04,South,172,5.9,8.5,71,0.00,,,0.00,VWS V14.01,2013-02-18 09:29:00,
2013-02-18 04:30:00,29.7,21.6,30.04,South,172,4.4,7.5,71,0.00,,,0.00,VWS V14.01,2013-02-18 09:30:00,
2013-02-18 04:31:00,29.7,21.6,30.04,SSE,151,5.9,11.3,71,0.00,,FEW200,0.00,VWS V14.01,2013-02-18 09:31:00,
2013-02-18 04:32:00,29.7,21.6,30.04,South,180,5.9,11.3,71,0.00,,,0.00,VWS V14.01,2013-02-18 09:32:00,
2013-02-18 04:33:00,29.7,21.6,30.04,SSW,198,8.9,11.3,71,0.00,,,0.00,VWS V14.01,2013-02-18 09:33:00,
2013-02-18 04:34:00,29.7,21.6,30.04,South,172,5.2,11.3,71,0.00,,,0.00,VWS V14.01,2013-02-18 09:34:00,
2013-02-18 04:35:00,29.7,21.6,30.04,SSE,163,4.4,7.5,71,0.00,,,0.00,VWS V14.01,2013-02-18 09:35:00,
2013-02-18 04:36:00,29.7,21.6,30.04,South,182,6.6,8.5,71,0.00,,SCT250,0.00,VWS V14.01,2013-02-18 09:36:00,
2013-02-18 04:37:00,29.7,21.6,30.04,South,182,6.6,8.5,71,0.00,,,0.00,VWS V14.01,2013-02-18 09:37:00,
2013-02-18 04:38:00,29.7,21.6,30.04,SE,144,5.9,13.2,71,0.00,,,0.00,VWS V14.01,2013-02-18 09:38:00,
2013-02-18 04:39:00,29.7,21.6,30.04,SE,136,4.4,7.5,71,0.00,,,0.00,VWS V14.01,2013-02-18 09:39:00,
2013-02-18 04:40:00,29.7,21.6,30.04,South,181,3.7,9.4,71,0.00,,,0.00,VWS V14.01,2013-02-18 09:40:00,
2013-02-18 04:41:00,29.7,21.6,30.04,South,175,4.4,5.6,71,0.00,,SCT250,0.00,VWS V14.01,2013-02-18 09:41:00,
2013-02-18 04:42:00,29.7,21.6,30.04,South,175,4.4,5.6,71,0.00,,,0.00,VWS V14.01,2013-02-18 09:42:00,
2013-02-18 04:43:00,29.7,21.6,30.04,SSE,163,5.2,6.6,71,0.00,,,0.00,VWS V14.01,2013-02-18 09:43:00,
2013-02-18 04:44:00,29.7,21.6,30.04,SSE,162,0.0,11.3,71,0.00,,,0.00,VWS V14.01,2013-02-18 09:44:00,
2013-02-18 04:45:00,29.7,21.6,30.04,SSE,160,6.6,8.5,71,0.00,,,0.00,VWS V14.01,2013-02-18 09:45:00,
2013-02-18 04:46:00,29.7,21.6,30.04,SSE,166,5.9,10.3,71,0.00,,SCT250,0.00,VWS V14.01,2013-02-18 09:46:00,
2013-02-18 04:47:00,29.7,21.6,30.04,SSE,166,5.9,10.3,71,0.00,,,0.00,VWS V14.01,2013-02-18 09:47:00,
2013-02-18 04:48:00,29.8,21.7,30.04,SE,144,5.9,8.5,71,0.00,,,0.00,VWS V14.01,2013-02-18 09:48:00,
2013-02-18 04:49:00,29.8,21.7,30.04,SSE,159,5.2,8.5,71,0.00,,,0.00,VWS V14.01,2013-02-18 09:49:00,
2013-02-18 04:50:00,29.8,21.7,30.04,South,179,8.1,10.3,71,0.00,,,0.00,VWS V14.01,2013-02-18 09:50:00,
2013-02-18 04:51:00,29.8,21.7,30.04,South,181,5.9,7.5,71,0.00,,SCT250,0.00,VWS V14.01,2013-02-18 09:51:00,
2013-02-18 04:52:00,29.8,21.7,30.04,SSE,165,4.4,9.4,71,0.00,,,0.00,VWS V14.01,2013-02-18 09:52:00,
2013-02-18 04:53:00,29.8,21.7,30.04,SSE,162,4.4,7.5,71,0.00,,,0.00,VWS V14.01,2013-02-18 09:53:00,
2013-02-18 04:54:00,29.8,21.7,30.04,SSE,148,5.2,6.6,71,0.00,,,0.00,VWS V14.01,2013-02-18 09:54:00,
2013-02-18 04:55:00,29.8,21.7,30.04,SSE,147,5.2,6.6,71,0.00,,,0.00,VWS V14.01,2013-02-18 09:55:00,
2013-02-18 04:56:00,29.8,21.7,30.04,SSE,160,4.4,8.5,71,0.00,,SCT250,0.00,VWS V14.01,2013-02-18 09:56:00,
2013-02-18 04:57:00,29.8,21.7,30.04,SSE,160,6.6,8.5,71,0.00,,,0.00,VWS V14.01,2013-02-18 09:57:00,
2013-02-18 04:58:00,29.8,21.7,30.04,SE,134,5.9,8.5,71,0.00,,,0.00,VWS V14.01,2013-02-18 09:58:00,
2013-02-18 04:59:00,29.8,21.7,30.04,South,173,4.4,7.5,71,0.00,,,0.00,VWS V14.01,2013-02-18 09:59:00,
2013-02-18 05:00:00,29.8,21.7,30.04,SE,142,5.2,8.5,71,0.00,,,0.00,VWS V14.01,2013-02-18 10:00:00,
2013-02-18 05:01:00,29.8,21.7,30.04,South,174,3.7,6.6,71,0.00,,SCT250,0.00,VWS V14.01,2013-02-18 10:01:00,
2013-02-18 05:02:00,29.8,21.7,30.04,South,174,5.2,6.6,71,0.00,,,0.00,VWS V14.01,2013-02-18 10:02:00,
2013-02-18 05:03:00,30.0,21.9,30.04,South,174,4.4,6.6,71,0.00,,,0.00,VWS V14.01,2013-02-18 10:03:00,
2013-02-18 05:04:00,30.0,21.9,30.04,SSE,149,5.2,7.5,71,0.00,,,0.00,VWS V14.01,2013-02-18 10:04:00,
2013-02-18 05:05:00,30.0,21.9,30.04,South,179,4.4,6.6,71,0.00,,,0.00,VWS V14.01,2013-02-18 10:05:00,
2013-02-18 05:06:00,30.0,21.9,30.04,SSE,164,5.9,7.5,71,0.00,,SCT250,0.00,VWS V14.01,2013-02-18 10:06:00,
2013-02-18 05:07:00,30.0,21.9,30.04,SSE,147,5.2,8.5,71,0.00,,,0.00,VWS V14.01,2013-02-18 10:07:00,
2013-02-18 05:08:00,30.0,21.9,30.04,ESE,121,6.6,8.5,71,0.00,,BKN250,0.00,VWS V14.01,2013-02-18 10:08:00,
2013-02-18 05:09:00,30.0,21.9,30.04,South,181,3.7,8.5,71,0.00,,,0.00,VWS V14.01,2013-02-18 10:09:00,
2013-02-18 05:10:00,30.0,21.9,30.04,South,176,4.4,10.3,71,0.00,,,0.00,VWS V14.01,2013-02-18 10:10:00,
2013-02-18 05:11:00,30.2,22.1,30.04,South,190,5.9,7.5,71,0.00,,SCT250,0.00,VWS V14.01,2013-02-18 10:11:00,
2013-02-18 05:12:00,30.2,22.1,30.04,South,190,0.0,6.6,71,0.00,,,0.00,VWS V14.01,2013-02-18 10:12:00,
2013-02-18 05:13:00,30.2,22.1,30.04,SSE,159,5.2,7.5,71,0.00,,,0.00,VWS V14.01,2013-02-18 10:13:00,
2013-02-18 05:14:00,30.2,22.1,30.04,SSE,158,4.4,6.6,71,0.00,,,0.00,VWS V14.01,2013-02-18 10:14:00,
2013-02-18 05:15:00,30.2,22.1,30.04,SSE,158,4.4,5.6,71,0.00,,,0.00,VWS V14.01,2013-02-18 10:15:00,
2013-02-18 05:16:00,30.2,22.1,30.04,SE,142,5.9,8.5,71,0.00,,SCT250,0.00,VWS V14.01,2013-02-18 10:16:00,
2013-02-18 05:17:00,30.2,22.1,30.04,SSE,153,6.6,8.5,71,0.00,,,0.00,VWS V14.01,2013-02-18 10:17:00,
2013-02-18 05:18:00,30.2,22.1,30.04,SSE,168,5.9,8.5,71,0.00,,,0.00,VWS V14.01,2013-02-18 10:18:00,
2013-02-18 05:19:00,30.2,22.1,30.04,South,182,6.6,8.5,71,0.00,,,0.00,VWS V14.01,2013-02-18 10:19:00,
2013-02-18 05:20:00,30.2,22.1,30.04,South,190,5.2,8.5,71,0.00,,,0.00,VWS V14.01,2013-02-18 10:20:00,
2013-02-18 05:21:00,30.4,22.2,30.04,SSE,153,0.0,10.3,71,0.00,,SCT250,0.00,VWS V14.01,2013-02-18 10:21:00,
2013-02-18 05:22:00,30.2,22.1,30.04,SE,143,8.1,10.3,71,0.00,,,0.00,VWS V14.01,2013-02-18 10:22:00,
2013-02-18 05:23:00,30.4,22.2,30.04,SSE,153,0.0,10.3,71,0.00,,,0.00,VWS V14.01,2013-02-18 10:23:00,
2013-02-18 05:24:00,30.4,22.2,30.04,South,182,6.6,8.5,71,0.00,,,0.00,VWS V14.01,2013-02-18 10:24:00,
2013-02-18 05:25:00,30.4,22.2,30.04,SSE,165,3.7,8.5,71,0.00,,,0.00,VWS V14.01,2013-02-18 10:25:00,
2013-02-18 05:26:00,30.4,22.2,30.04,SE,130,5.2,6.6,71,0.00,,,0.00,VWS V14.01,2013-02-18 10:26:00,
2013-02-18 05:27:00,30.4,21.7,30.04,SSE,161,5.9,7.5,70,0.00,,SCT250,0.00,VWS V14.01,2013-02-18 10:27:00,
2013-02-18 05:28:00,30.4,21.7,30.04,SSE,161,5.9,7.5,70,0.00,,,0.00,VWS V14.01,2013-02-18 10:28:00,
2013-02-18 05:29:00,30.4,21.7,30.04,SSE,162,5.2,7.5,70,0.00,,,0.00,VWS V14.01,2013-02-18 10:29:00,
2013-02-18 05:30:00,30.4,21.7,30.04,SSE,160,6.6,8.5,70,0.00,,,0.00,VWS V14.01,2013-02-18 10:30:00,
2013-02-18 05:31:00,30.4,21.7,30.04,SSW,195,5.9,8.5,70,0.00,,,0.00,VWS V14.01,2013-02-18 10:31:00,
2013-02-18 05:32:00,30.4,21.7,30.04,South,183,5.2,8.5,70,0.00,,SCT250,0.00,VWS V14.01,2013-02-18 10:32:00,
2013-02-18 05:33:00,30.4,21.7,30.04,South,174,4.4,8.5,70,0.00,,,0.00,VWS V14.01,2013-02-18 10:33:00,
2013-02-18 05:34:00,30.4,21.7,30.04,South,174,4.4,5.6,70,0.00,,BKN250,0.00,VWS V14.01,2013-02-18 10:34:00,
2013-02-18 05:35:00,30.4,21.7,30.04,South,173,3.7,8.5,70,0.00,,,0.00,VWS V14.01,2013-02-18 10:35:00,
2013-02-18 05:36:00,30.4,21.7,30.04,SE,145,6.6,8.5,70,0.00,,,0.00,VWS V14.01,2013-02-18 10:36:00,
2013-02-18 05:37:00,30.4,21.7,30.04,SSE,150,5.2,11.3,70,0.00,,,0.00,VWS V14.01,2013-02-18 10:37:00,
2013-02-18 05:38:00,30.4,21.7,30.04,SSE,166,5.2,6.6,70,0.00,,SCT250,0.00,VWS V14.01,2013-02-18 10:38:00,
2013-02-18 05:39:00,30.4,21.7,30.04,SSE,162,8.1,10.3,70,0.00,,,0.00,VWS V14.01,2013-02-18 10:39:00,
2013-02-18 05:40:00,30.4,21.7,30.04,SSE,158,6.6,10.3,70,0.00,,,0.00,VWS V14.01,2013-02-18 10:40:00,
2013-02-18 05:41:00,30.4,21.7,30.04,SSE,158,5.2,8.5,70,0.00,,,0.00,VWS V14.01,2013-02-18 10:41:00,
2013-02-18 05:42:00,30.4,21.7,30.04,SSE,154,3.7,6.6,70,0.00,,,0.00,VWS V14.01,2013-02-18 10:42:00,
2013-02-18 05:43:00,30.4,21.7,30.04,SSE,166,8.1,10.3,70,0.00,,SCT250,0.00,VWS V14.01,2013-02-18 10:43:00,
2013-02-18 05:44:00,30.4,21.7,30.04,SSE,151,5.2,10.3,70,0.00,,,0.00,VWS V14.01,2013-02-18 10:44:00,
2013-02-18 05:45:00,30.4,21.7,30.04,South,173,5.2,7.5,70,0.00,,BKN250,0.00,VWS V14.01,2013-02-18 10:45:00,
2013-02-18 05:46:00,30.4,21.7,30.04,SSE,163,5.9,10.3,70,0.00,,,0.00,VWS V14.01,2013-02-18 10:46:00,
2013-02-18 05:47:00,30.4,21.7,30.04,SSE,155,4.4,7.5,70,0.00,,,0.00,VWS V14.01,2013-02-18 10:47:00,
2013-02-18 05:48:00,30.4,21.7,30.04,South,178,5.2,8.5,70,0.00,,SCT250,0.00,VWS V14.01,2013-02-18 10:48:00,
2013-02-18 05:49:00,30.4,21.7,30.04,South,178,5.2,8.5,70,0.00,,,0.00,VWS V14.01,2013-02-18 10:49:00,
2013-02-18 05:50:00,30.4,21.7,30.04,South,179,5.2,7.5,70,0.00,,,0.00,VWS V14.01,2013-02-18 10:50:00,
2013-02-18 05:51:00,30.4,21.7,30.04,SSE,155,4.4,8.5,70,0.00,,,0.00,VWS V14.01,2013-02-18 10:51:00,
2013-02-18 05:52:00,30.4,21.7,30.04,SSW,201,5.2,7.5,70,0.00,,,0.00,VWS V14.01,2013-02-18 10:52:00,
2013-02-18 05:53:00,30.4,21.7,30.04,SSE,150,5.2,10.3,70,0.00,,SCT250,0.00,VWS V14.01,2013-02-18 10:53:00,
2013-02-18 05:54:00,30.4,21.7,30.04,SSE,160,5.2,10.3,70,0.00,,,0.00,VWS V14.01,2013-02-18 10:54:00,
2013-02-18 05:55:00,30.4,21.7,30.04,South,181,4.4,8.5,70,0.00,,,0.00,VWS V14.01,2013-02-18 10:55:00,
2013-02-18 05:56:00,30.4,21.7,30.04,South,169,5.9,7.5,70,0.00,,,0.00,VWS V14.01,2013-02-18 10:56:00,
2013-02-18 05:57:00,30.4,21.7,30.04,South,169,6.6,8.5,70,0.00,,,0.00,VWS V14.01,2013-02-18 10:57:00,
2013-02-18 05:58:00,30.4,22.2,30.04,SSE,167,8.9,11.3,71,0.00,,SCT250,0.00,VWS V14.01,2013-02-18 10:58:00,
2013-02-18 05:59:00,30.4,22.2,30.04,SSE,166,5.2,11.3,71,0.00,,,0.00,VWS V14.01,2013-02-18 10:59:00,
2013-02-18 06:00:00,30.4,22.2,30.04,SE,133,4.4,11.3,71,0.00,,,0.00,VWS V14.01,2013-02-18 11:00:00,
2013-02-18 06:01:00,30.4,22.2,30.04,South,190,9.6,12.2,71,0.00,,,0.00,VWS V14.01,2013-02-18 11:01:00,
2013-02-18 06:02:00,30.4,22.2,30.04,South,182,5.9,12.2,71,0.00,,,0.00,VWS V14.01,2013-02-18 11:02:00,
2013-02-18 06:03:00,30.6,22.4,30.04,South,172,4.4,6.6,71,0.00,,SCT250,0.00,VWS V14.01,2013-02-18 11:03:00,
2013-02-18 06:04:00,30.6,22.4,30.04,South,172,5.2,7.5,71,0.00,,,0.00,VWS V14.01,2013-02-18 11:04:00,
2013-02-18 06:05:00,30.6,22.4,30.04,South,175,8.9,11.3,71,0.00,,,0.00,VWS V14.01,2013-02-18 11:05:00,
2013-02-18 06:06:00,30.6,22.4,30.04,South,177,5.9,11.3,71,0.00,,,0.00,VWS V14.01,2013-02-18 11:06:00,
2013-02-18 06:07:00,30.6,22.4,30.04,South,176,8.1,10.3,71,0.00,,,0.00,VWS V14.01,2013-02-18 11:07:00,
2013-02-18 06:08:00,30.6,22.4,30.04,SSE,157,8.9,11.3,71,0.00,,SCT250,0.00,VWS V14.01,2013-02-18 11:08:00,
2013-02-18 06:09:00,30.6,22.4,30.04,SSE,157,5.2,11.3,71,0.00,,,0.00,VWS V14.01,2013-02-18 11:09:00,
2013-02-18 06:10:00,30.6,22.4,30.04,South,187,9.6,12.2,71,0.00,,,0.00,VWS V14.01,2013-02-18 11:10:00,
2013-02-18 06:11:00,30.6,22.4,30.04,SSE,160,6.6,12.2,71,0.00,,,0.00,VWS V14.01,2013-02-18 11:11:00,
2013-02-18 06:12:00,30.6,22.4,30.04,South,184,10.3,13.2,71,0.00,,,0.00,VWS V14.01,2013-02-18 11:12:00,
2013-02-18 06:13:00,30.7,22.6,30.04,SE,146,5.9,11.3,71,0.00,,SCT250,0.00,VWS V14.01,2013-02-18 11:13:00,
2013-02-18 06:14:00,30.7,22.6,30.04,SSE,163,8.1,10.3,71,0.00,,,0.00,VWS V14.01,2013-02-18 11:14:00,
2013-02-18 06:15:00,30.7,22.6,30.04,SSE,162,6.6,11.3,71,0.00,,,0.00,VWS V14.01,2013-02-18 11:15:00,
2013-02-18 06:16:00,30.7,22.6,30.04,South,188,8.9,11.3,71,0.00,,,0.00,VWS V14.01,2013-02-18 11:16:00,
2013-02-18 06:17:00,30.7,22.6,30.04,South,176,8.9,12.2,71,0.00,,,0.00,VWS V14.01,2013-02-18 11:17:00,
2013-02-18 06:18:00,30.7,22.6,30.04,SSE,157,5.9,11.3,71,0.00,,,0.00,VWS V14.01,2013-02-18 11:18:00,
2013-02-18 06:19:00,30.7,22.6,30.04,SSE,157,6.6,16.9,71,0.00,,SCT250,0.00,VWS V14.01,2013-02-18 11:19:00,
2013-02-18 06:20:00,30.7,22.6,30.04,SSE,157,6.6,16.9,71,0.00,,,0.00,VWS V14.01,2013-02-18 11:20:00,
2013-02-18 06:21:00,30.7,22.6,30.04,SSE,153,8.1,10.3,71,0.00,,,0.00,VWS V14.01,2013-02-18 11:21:00,
2013-02-18 06:22:00,30.7,22.6,30.04,SSW,201,8.1,16.0,71,0.00,,,0.00,VWS V14.01,2013-02-18 11:22:00,
2013-02-18 06:23:00,30.7,22.6,30.04,South,170,5.9,11.3,71,0.00,,,0.00,VWS V14.01,2013-02-18 11:23:00,
2013-02-18 06:24:00,30.9,22.8,30.04,South,179,8.1,10.3,71,0.00,,SCT250,0.00,VWS V14.01,2013-02-18 11:24:00,
2013-02-18 06:25:00,30.9,22.8,30.04,South,179,8.1,10.3,71,0.00,,,0.00,VWS V14.01,2013-02-18 11:25:00,
2013-02-18 06:26:00,30.9,22.8,30.04,SSE,155,8.9,11.3,71,0.00,,,0.00,VWS V14.01,2013-02-18 11:26:00,
2013-02-18 06:27:00,30.9,22.8,30.04,SSE,165,7.4,11.3,71,0.00,,,0.00,VWS V14.01,2013-02-18 11:27:00,
2013-02-18 06:28:00,30.9,22.8,30.04,SSE,166,5.2,10.3,71,0.00,,,0.00,VWS V14.01,2013-02-18 11:28:00,
2013-02-18 06:29:00,30.9,22.8,30.04,SE,140,3.7,7.5,71,0.00,,SCT250,0.00,VWS V14.01,2013-02-18 11:29:00,
2013-02-18 06:30:00,30.9,22.8,30.04,South,173,5.9,7.5,71,0.00,,BKN250,0.00,VWS V14.01,2013-02-18 11:30:00,
2013-02-18 06:31:00,30.9,22.8,30.04,South,189,8.9,11.3,71,0.00,,,0.00,VWS V14.01,2013-02-18 11:31:00,
2013-02-18 06:32:00,30.9,22.8,30.04,South,174,6.6,12.2,71,0.00,,,0.00,VWS V14.01,2013-02-18 11:32:00,
2013-02-18 06:33:00,31.1,22.9,30.04,South,175,5.2,8.5,71,0.00,,,0.00,VWS V14.01,2013-02-18 11:33:00,
2013-02-18 06:34:00,31.1,22.9,30.04,SSE,154,6.6,8.5,71,0.00,,,0.00,VWS V14.01,2013-02-18 11:34:00,
2013-02-18 06:35:00,31.1,22.9,30.04,SSE,162,6.6,10.3,71,0.00,,SCT250,0.00,VWS V14.01,2013-02-18 11:35:00,
2013-02-18 06:36:00,31.1,22.9,30.04,SSE,162,5.2,10.3,71,0.00,,,0.00,VWS V14.01,2013-02-18 11:36:00,
2013-02-18 06:37:00,31.1,22.9,30.04,SSE,162,8.1,11.3,71,0.00,,,0.00,VWS V14.01,2013-02-18 11:37:00,
2013-02-18 06:38:00,31.1,22.9,30.04,South,181,5.9,10.3,71,0.00,,,0.00,VWS V14.01,2013-02-18 11:38:00,
2013-02-18 06:39:00,31.1,22.9,30.04,SSE,160,8.9,11.3,71,0.00,,,0.00,VWS V14.01,2013-02-18 11:39:00,
2013-02-18 06:40:00,31.1,22.9,30.04,SSE,168,5.2,6.6,71,0.00,,BKN250,0.00,VWS V14.01,2013-02-18 11:40:00,
2013-02-18 06:41:00,31.1,22.9,30.04,SSE,168,5.2,6.6,71,0.00,,,0.00,VWS V14.01,2013-02-18 11:41:00,
2013-02-18 06:42:00,31.1,22.9,30.01,SSW,197,5.9,10.3,71,0.00,,,0.00,VWS V14.01,2013-02-18 11:42:00,
2013-02-18 06:43:00,31.1,22.9,30.01,South,177,4.4,7.5,71,0.00,,,0.00,VWS V14.01,2013-02-18 11:43:00,
2013-02-18 06:44:00,31.1,22.9,30.01,South,178,5.9,10.3,71,0.00,,BKN250,0.00,VWS V14.01,2013-02-18 11:44:00,
2013-02-18 06:45:00,31.1,22.9,30.01,South,171,6.6,8.5,71,0.00,,BKN250,0.00,VWS V14.01,2013-02-18 11:45:00,
2013-02-18 06:46:00,31.1,22.9,30.01,South,171,6.6,8.5,71,0.00,,,0.00,VWS V14.01,2013-02-18 11:46:00,
2013-02-18 06:47:00,31.1,22.9,30.01,South,174,8.9,12.2,71,0.00,,,0.00,VWS V14.01,2013-02-18 11:47:00,
2013-02-18 06:48:00,31.1,22.9,30.01,SSE,166,5.2,11.3,71,0.00,,,0.00,VWS V14.01,2013-02-18 11:48:00,
2013-02-18 06:49:00,31.1,22.9,30.01,South,183,6.6,8.5,71,0.00,,,0.00,VWS V14.01,2013-02-18 11:49:00,
2013-02-18 06:50:00,31.3,23.1,30.01,SSE,167,5.2,11.3,71,0.00,,BKN250,0.00,VWS V14.01,2013-02-18 11:50:00,
2013-02-18 06:51:00,31.3,23.1,30.01,SSE,167,5.2,11.3,71,0.00,,,0.00,VWS V14.01,2013-02-18 11:51:00,
2013-02-18 06:52:00,31.3,23.1,30.01,South,170,6.6,8.5,71,0.00,,,0.00,VWS V14.01,2013-02-18 11:52:00,
2013-02-18 06:53:00,31.3,23.1,30.01,SSE,161,6.6,16.0,71,0.00,,,0.00,VWS V14.01,2013-02-18 11:53:00,
2013-02-18 06:54:00,31.3,23.1,30.01,SSE,165,6.6,8.5,71,0.00,,,0.00,VWS V14.01,2013-02-18 11:54:00,
2013-02-18 06:55:00,31.3,23.1,30.01,SE,140,10.3,13.2,71,0.00,,BKN250,0.00,VWS V14.01,2013-02-18 11:55:00,
2013-02-18 06:56:00,31.3,23.1,30.01,SE,140,10.3,13.2,71,0.00,,,0.00,VWS V14.01,2013-02-18 11:56:00,
2013-02-18 06:57:00,31.3,23.1,30.01,South,179,5.9,13.2,71,0.00,,,0.00,VWS V14.01,2013-02-18 11:57:00,
2013-02-18 06:58:00,31.5,23.3,30.01,SSW,192,9.6,12.2,71,0.00,,,0.00,VWS V14.01,2013-02-18 11:58:00,
2013-02-18 06:59:00,31.5,23.3,30.01,SSE,160,5.9,12.2,71,0.00,,,0.00,VWS V14.01,2013-02-18 11:59:00,
2013-02-18 07:00:00,31.5,23.3,30.01,SW,214,8.1,10.3,71,0.00,,BKN250,0.00,VWS V14.01,2013-02-18 12:00:00,
2013-02-18 07:01:00,31.5,23.3,30.01,SSE,159,5.2,11.3,71,0.00,,,0.00,VWS V14.01,2013-02-18 12:01:00,
2013-02-18 07:02:00,31.5,23.3,30.01,South,186,8.9,11.3,71,0.00,,,0.00,VWS V14.01,2013-02-18 12:02:00,
2013-02-18 07:03:00,31.5,23.3,30.01,South,178,8.9,12.2,71,0.00,,,0.00,VWS V14.01,2013-02-18 12:03:00,
2013-02-18 07:04:00,31.6,23.5,30.01,South,171,9.6,12.2,71,0.00,,,0.00,VWS V14.01,2013-02-18 12:04:00,
2013-02-18 07:05:00,31.6,23.5,30.01,SSE,168,5.9,8.5,71,0.00,,BKN250,0.00,VWS V14.01,2013-02-18 12:05:00,
2013-02-18 07:06:00,31.6,23.5,30.01,South,183,6.6,8.5,71,0.00,,,0.00,VWS V14.01,2013-02-18 12:06:00,
2013-02-18 07:07:00,31.6,23.5,30.01,South,182,8.9,11.3,71,0.00,,,0.00,VWS V14.01,2013-02-18 12:07:00,
2013-02-18 07:08:00,31.6,23.5,30.01,SSE,167,6.6,16.9,71,0.00,,,0.00,VWS V14.01,2013-02-18 12:08:00,
2013-02-18 07:09:00,31.8,23.6,30.01,SSE,154,6.6,12.2,71,0.00,,,0.00,VWS V14.01,2013-02-18 12:09:00,
2013-02-18 07:10:00,31.8,23.6,30.01,South,177,9.6,12.2,71,0.00,,BKN250,0.00,VWS V14.01,2013-02-18 12:10:00,
2013-02-18 07:11:00,31.8,23.6,30.01,South,173,8.1,12.2,71,0.00,,,0.00,VWS V14.01,2013-02-18 12:11:00,
2013-02-18 07:12:00,32.0,23.8,30.01,SSE,149,9.6,12.2,71,0.00,,,0.00,VWS V14.01,2013-02-18 12:12:00,
2013-02-18 07:13:00,32.0,23.8,30.01,South,175,9.6,16.0,71,0.00,,,0.00,VWS V14.01,2013-02-18 12:13:00,
2013-02-18 07:14:00,32.0,23.8,30.01,South,185,9.6,13.2,71,0.00,,,0.00,VWS V14.01,2013-02-18 12:14:00,
2013-02-18 07:15:00,32.2,24.0,30.01,SSE,156,5.9,11.3,71,0.00,,BKN250,0.00,VWS V14.01,2013-02-18 12:15:00,
2013-02-18 07:16:00,32.0,23.8,30.01,SSW,200,8.9,12.2,71,0.00,,,0.00,VWS V14.01,2013-02-18 12:16:00,
2013-02-18 07:17:00,32.2,24.0,30.01,South,176,7.4,12.2,71,0.00,,,0.00,VWS V14.01,2013-02-18 12:17:00,
2013-02-18 07:18:00,32.2,24.0,30.01,South,187,8.9,11.3,71,0.00,,,0.00,VWS V14.01,2013-02-18 12:18:00,
2013-02-18 07:19:00,32.2,24.0,30.01,SSE,161,8.1,11.3,71,0.00,,,0.00,VWS V14.01,2013-02-18 12:19:00,
2013-02-18 07:20:00,32.2,24.0,30.01,South,182,9.6,12.2,71,0.00,,BKN250,0.00,VWS V14.01,2013-02-18 12:20:00,
2013-02-18 07:21:00,32.2,24.0,30.01,South,181,8.9,13.2,71,0.00,,,0.00,VWS V14.01,2013-02-18 12:21:00,
2013-02-18 07:22:00,32.2,24.0,30.01,SSE,165,8.1,12.2,71,0.00,,,0.00,VWS V14.01,2013-02-18 12:22:00,
2013-02-18 07:23:00,32.4,24.2,30.01,South,180,6.6,10.3,71,0.00,,,0.00,VWS V14.01,2013-02-18 12:23:00,
2013-02-18 07:24:00,32.4,24.2,30.01,South,179,6.6,13.2,71,0.00,,,0.00,VWS V14.01,2013-02-18 12:24:00,
2013-02-18 07:25:00,32.4,24.2,30.01,SSE,164,9.6,12.2,71,0.00,,BKN250,0.00,VWS V14.01,2013-02-18 12:25:00,
2013-02-18 07:26:00,32.4,24.2,30.01,South,188,9.6,13.2,71,0.00,,,0.00,VWS V14.01,2013-02-18 12:26:00,
2013-02-18 07:27:00,32.4,24.2,30.01,SSE,163,6.6,12.2,71,0.00,,,0.00,VWS V14.01,2013-02-18 12:27:00,
2013-02-18 07:44:00,32.9,24.7,30.01,SSW,193,9.6,12.2,71,0.00,,,0.00,VWS V14.01,2013-02-18 12:44:00,
2013-02-18 07:45:00,32.9,24.7,30.01,SSW,193,9.6,12.2,71,0.00,,BKN250,0.00,VWS V14.01,2013-02-18 12:45:00,
2013-02-18 07:46:00,32.9,24.7,30.01,South,179,10.3,13.2,71,0.00,,BKN250,0.00,VWS V14.01,2013-02-18 12:46:00,
2013-02-18 07:47:00,32.9,24.7,30.01,SSW,195,8.9,16.0,71,0.00,,BKN250,0.00,VWS V14.01,2013-02-18 12:47:00,
2013-02-18 07:48:00,32.9,24.7,30.01,South,172,5.9,12.2,71,0.00,,BKN250,0.00,VWS V14.01,2013-02-18 12:48:00,
2013-02-18 07:49:00,33.1,24.9,30.01,South,185,8.9,11.3,71,0.00,,,0.00,VWS V14.01,2013-02-18 12:49:00,
2013-02-18 07:50:00,33.1,24.9,30.01,South,185,8.9,16.0,71,0.00,,BKN250,0.00,VWS V14.01,2013-02-18 12:50:00,
2013-02-18 07:51:00,33.1,24.9,30.01,SSE,152,5.2,11.3,71,0.00,,BKN250,0.00,VWS V14.01,2013-02-18 12:51:00,
2013-02-18 07:52:00,33.1,24.9,30.01,SSE,166,8.1,10.3,71,0.00,,BKN250,0.00,VWS V14.01,2013-02-18 12:52:00,
2013-02-18 07:53:00,33.1,24.9,30.01,South,191,9.6,16.9,71,0.00,,BKN250,0.00,VWS V14.01,2013-02-18 12:53:00,
2013-02-18 07:54:00,33.1,24.9,30.01,SSE,158,8.9,13.2,71,0.00,,,0.00,VWS V14.01,2013-02-18 12:54:00,
2013-02-18 07:55:00,33.1,24.9,30.01,South,174,10.3,13.2,71,0.00,,BKN250,0.00,VWS V14.01,2013-02-18 12:55:00,
2013-02-18 07:56:00,33.1,24.9,30.01,South,179,9.6,13.2,71,0.00,,BKN250,0.00,VWS V14.01,2013-02-18 12:56:00,
2013-02-18 07:57:00,33.1,24.9,30.01,South,172,8.9,12.2,71,0.00,,BKN250,0.00,VWS V14.01,2013-02-18 12:57:00,
2013-02-18 07:58:00,33.1,24.9,30.01,South,183,8.1,13.2,71,0.00,,BKN250,0.00,VWS V14.01,2013-02-18 12:58:00,
2013-02-18 07:59:00,33.3,25.0,30.01,South,175,10.3,13.2,71,0.00,,,0.00,VWS V14.01,2013-02-18 12:59:00,
2013-02-18 08:00:00,33.3,25.0,30.01,South,178,9.6,13.2,71,0.00,,BKN250,0.00,VWS V14.01,2013-02-18 13:00:00,
2013-02-18 08:01:00,33.3,25.0,30.01,SSE,160,8.1,13.2,71,0.00,,BKN250,0.00,VWS V14.01,2013-02-18 13:01:00,
2013-02-18 08:02:00,33.3,25.0,30.01,SE,126,8.9,13.2,71,0.00,,BKN250,0.00,VWS V14.01,2013-02-18 13:02:00,
2013-02-18 08:03:00,33.3,25.0,30.01,SSW,205,10.3,13.2,71,0.00,,BKN250,0.00,VWS V14.01,2013-02-18 13:03:00,
2013-02-18 08:04:00,33.3,25.0,30.01,South,172,13.7,17.4,71,0.00,,,0.00,VWS V14.01,2013-02-18 13:04:00,
2013-02-18 08:05:00,33.3,25.0,30.01,South,171,9.6,16.0,71,0.00,,BKN250,0.00,VWS V14.01,2013-02-18 13:05:00,
2013-02-18 08:06:00,33.4,25.2,30.01,South,188,8.9,17.4,71,0.00,,BKN250,0.00,VWS V14.01,2013-02-18 13:06:00,
2013-02-18 08:07:00,33.4,25.2,30.01,SSE,167,9.6,12.2,71,0.00,,BKN250,0.00,VWS V14.01,2013-02-18 13:07:00,
2013-02-18 08:08:00,33.4,25.2,30.01,SSE,151,10.3,14.1,71,0.00,,BKN250,0.00,VWS V14.01,2013-02-18 13:08:00,
2013-02-18 08:09:00,33.6,25.4,30.01,South,177,6.6,11.3,71,0.00,,BKN250,0.00,VWS V14.01,2013-02-18 13:09:00,
2013-02-18 08:10:00,33.6,25.4,30.01,SSE,151,8.9,16.9,71,0.00,,BKN250,0.00,VWS V14.01,2013-02-18 13:10:00,
2013-02-18 08:11:00,33.6,25.4,30.01,South,174,5.9,12.2,71,0.00,,BKN250,0.00,VWS V14.01,2013-02-18 13:11:00,
2013-02-18 08:12:00,33.6,25.4,30.01,South,186,8.9,11.3,71,0.00,,BKN250,0.00,VWS V14.01,2013-02-18 13:12:00,
2013-02-18 08:13:00,33.6,25.4,30.01,SSE,157,4.4,12.2,71,0.00,,BKN250,0.00,VWS V14.01,2013-02-18 13:13:00,
2013-02-18 08:14:00,33.8,25.5,30.01,South,172,6.6,11.3,71,0.00,,BKN250,0.00,VWS V14.01,2013-02-18 13:14:00,
2013-02-18 08:15:00,33.8,25.5,30.01,South,169,5.9,17.4,71,0.00,,BKN250,0.00,VWS V14.01,2013-02-18 13:15:00,
2013-02-18 08:16:00,33.8,25.5,30.01,SSE,149,9.6,12.2,71,0.00,,BKN250,0.00,VWS V14.01,2013-02-18 13:16:00,
2013-02-18 08:17:00,34.0,25.7,30.01,SSE,151,10.3,13.2,71,0.00,,BKN250,0.00,VWS V14.01,2013-02-18 13:17:00,
2013-02-18 08:18:00,34.0,25.7,30.01,SSW,192,6.6,13.2,71,0.00,,BKN250,0.00,VWS V14.01,2013-02-18 13:18:00,
2013-02-18 08:19:00,34.2,25.9,30.01,SSE,162,12.5,17.4,71,0.00,,BKN250,0.00,VWS V14.01,2013-02-18 13:19:00,
2013-02-18 08:20:00,34.3,26.1,30.01,SSW,210,11.1,14.1,71,0.00,,BKN250,0.00,VWS V14.01,2013-02-18 13:20:00,
2013-02-18 08:21:00,34.3,26.1,30.01,SSE,158,13.7,17.4,71,0.00,,BKN250,0.00,VWS V14.01,2013-02-18 13:21:00,
2013-02-18 08:22:00,34.3,26.1,30.01,South,176,6.6,17.4,71,0.00,,BKN250,0.00,VWS V14.01,2013-02-18 13:22:00,
2013-02-18 08:23:00,34.5,26.2,30.01,South,176,8.1,12.2,71,0.00,,BKN250,0.00,VWS V14.01,2013-02-18 13:23:00,
2013-02-18 08:24:00,34.5,26.2,30.01,South,176,6.6,15.0,71,0.00,,BKN250,0.00,VWS V14.01,2013-02-18 13:24:00,
2013-02-18 08:25:00,34.9,26.6,30.01,SSW,201,9.6,16.9,71,0.00,,BKN250,0.00,VWS V14.01,2013-02-18 13:25:00,
2013-02-18 08:26:00,34.9,26.6,30.01,SSE,163,10.3,16.9,71,0.00,,BKN250,0.00,VWS V14.01,2013-02-18 13:26:00,
2013-02-18 08:27:00,34.9,26.6,30.01,SSE,168,5.9,13.2,71,0.00,,BKN250,0.00,VWS V14.01,2013-02-18 13:27:00,
2013-02-18 08:28:00,35.1,26.8,30.01,South,178,5.9,10.3,71,0.00,,BKN250,0.00,VWS V14.01,2013-02-18 13:28:00,
2013-02-18 08:29:00,35.2,26.9,30.01,SW,214,6.6,10.3,71,0.00,,BKN250,0.00,VWS V14.01,2013-02-18 13:29:00,
2013-02-18 08:30:00,35.2,26.9,30.01,SSE,164,6.6,11.3,71,0.00,,BKN250,0.00,VWS V14.01,2013-02-18 13:30:00,
2013-02-18 08:31:00,35.4,27.1,30.01,South,176,8.9,11.3,71,0.00,,BKN250,0.00,VWS V14.01,2013-02-18 13:31:00,
2013-02-18 08:32:00,35.4,27.1,30.01,SE,143,14.4,18.3,71,0.00,,BKN250,0.00,VWS V14.01,2013-02-18 13:32:00,
2013-02-18 08:33:00,35.6,26.7,30.01,SSE,162,11.8,18.3,70,0.00,,BKN250,0.00,VWS V14.01,2013-02-18 13:33:00,
2013-02-18 08:34:00,35.6,26.7,30.01,South,188,8.1,15.0,70,0.00,,BKN250,0.00,VWS V14.01,2013-02-18 13:34:00,
2013-02-18 08:35:00,35.8,26.9,30.01,SSE,167,9.6,13.2,70,0.00,,BKN250,0.00,VWS V14.01,2013-02-18 13:35:00,
2013-02-18 08:36:00,35.8,26.9,30.01,South,179,12.5,16.0,70,0.00,,BKN250,0.00,VWS V14.01,2013-02-18 13:36:00,
2013-02-18 08:37:00,36.1,27.2,30.01,SSE,149,10.3,16.0,70,0.00,,BKN250,0.00,VWS V14.01,2013-02-18 13:37:00,
2013-02-18 08:38:00,36.1,27.2,30.01,South,182,10.3,13.2,70,0.00,,BKN250,0.00,VWS V14.01,2013-02-18 13:38:00,
2013-02-18 08:39:00,36.1,27.2,30.01,SW,215,9.6,13.2,70,0.00,,BKN250,0.00,VWS V14.01,2013-02-18 13:39:00,
2013-02-18 08:40:00,36.3,27.4,30.01,SSW,203,8.9,16.0,70,0.00,,BKN250,0.00,VWS V14.01,2013-02-18 13:40:00,
2013-02-18 08:41:00,36.3,27.4,30.01,SSW,201,8.9,16.0,70,0.00,,BKN250,0.00,VWS V14.01,2013-02-18 13:41:00,
2013-02-18 08:42:00,36.5,27.6,30.01,South,176,9.6,18.3,70,0.00,,BKN250,0.00,VWS V14.01,2013-02-18 13:42:00,
2013-02-18 08:43:00,36.7,27.7,30.01,SSW,212,14.4,18.3,70,0.00,,BKN250,0.00,VWS V14.01,2013-02-18 13:43:00,
2013-02-18 08:44:00,36.7,27.7,30.01,South,187,9.6,18.3,70,0.00,,BKN250,0.00,VWS V14.01,2013-02-18 13:44:00,
2013-02-18 08:45:00,36.9,27.9,30.01,SSW,200,10.3,14.1,70,0.00,,BKN250,0.00,VWS V14.01,2013-02-18 13:45:00,
2013-02-18 08:46:00,36.9,27.9,30.01,SSW,200,10.3,14.1,70,0.00,,BKN250,0.00,VWS V14.01,2013-02-18 13:46:00,
2013-02-18 08:47:00,37.0,28.1,30.01,South,188,13.7,17.4,70,0.00,,BKN250,0.00,VWS V14.01,2013-02-18 13:47:00,
2013-02-18 08:48:00,37.2,28.2,30.01,South,187,5.2,17.4,70,0.00,,BKN250,0.00,VWS V14.01,2013-02-18 13:48:00,
2013-02-18 08:49:00,37.4,27.8,30.01,SSW,198,8.9,18.3,68,0.00,,BKN250,0.00,VWS V14.01,2013-02-18 13:49:00,
2013-02-18 08:50:00,37.4,27.8,30.01,SSE,165,9.6,12.2,68,0.00,,BKN250,0.00,VWS V14.01,2013-02-18 13:50:00,
2013-02-18 08:51:00,37.4,27.8,30.01,SSE,165,9.6,12.2,68,0.00,,BKN250,0.00,VWS V14.01,2013-02-18 13:51:00,
2013-02-18 08:52:00,37.6,28.0,30.01,South,181,6.6,16.9,68,0.00,,BKN250,0.00,VWS V14.01,2013-02-18 13:52:00,
2013-02-18 08:53:00,37.6,28.0,30.01,South,183,5.9,11.3,68,0.00,,BKN250,0.00,VWS V14.01,2013-02-18 13:53:00,
2013-02-18 08:54:00,37.8,28.2,30.01,South,170,11.8,16.9,68,0.00,,BKN250,0.00,VWS V14.01,2013-02-18 13:54:00,
2013-02-18 08:55:00,37.9,28.3,30.01,SSW,195,8.9,11.3,68,0.00,,BKN250,0.00,VWS V14.01,2013-02-18 13:55:00,
2013-02-18 08:56:00,37.9,28.3,30.01,SSW,195,8.9,11.3,68,0.00,,BKN250,0.00,VWS V14.01,2013-02-18 13:56:00,
2013-02-18 08:57:00,37.9,28.3,30.01,SSE,158,10.3,18.3,68,0.00,,BKN250,0.00,VWS V14.01,2013-02-18 13:57:00,
2013-02-18 08:58:00,38.1,28.5,30.01,South,176,14.4,18.3,68,0.00,,BKN250,0.00,VWS V14.01,2013-02-18 13:58:00,
2013-02-18 08:59:00,38.1,28.5,30.01,South,183,9.6,18.3,68,0.00,,BKN250,0.00,VWS V14.01,2013-02-18 13:59:00,
2013-02-18 09:00:00,38.5,28.9,30.01,SE,129,5.2,10.3,68,0.00,,BKN250,0.00,VWS V14.01,2013-02-18 14:00:00,
2013-02-18 09:01:00,38.5,28.9,30.01,SE,129,5.2,10.3,68,0.00,,BKN250,0.00,VWS V14.01,2013-02-18 14:01:00,
2013-02-18 09:02:00,38.5,28.9,30.01,South,181,8.9,13.2,68,0.00,,BKN250,0.00,VWS V14.01,2013-02-18 14:02:00,
2013-02-18 09:03:00,38.7,29.0,30.01,South,180,6.6,13.2,68,0.00,,BKN250,0.00,VWS V14.01,2013-02-18 14:03:00,
2013-02-18 09:04:00,38.7,29.0,30.01,South,173,21.0,26.8,68,0.00,,BKN250,0.00,VWS V14.01,2013-02-18 14:04:00,
2013-02-18 09:05:00,38.8,29.2,30.01,South,185,12.5,18.3,68,0.00,,BKN250,0.00,VWS V14.01,2013-02-18 14:05:00,
2013-02-18 09:06:00,38.8,29.2,30.01,South,185,12.5,18.3,68,0.00,,BKN250,0.00,VWS V14.01,2013-02-18 14:06:00,
2013-02-18 09:07:00,38.8,29.2,30.01,South,182,12.5,16.0,68,0.00,,BKN250,0.00,VWS V14.01,2013-02-18 14:07:00,
2013-02-18 09:08:00,39.2,28.9,30.01,South,188,8.1,17.4,66,0.00,,BKN250,0.00,VWS V14.01,2013-02-18 14:08:00,
2013-02-18 09:09:00,39.2,28.9,30.01,South,181,10.3,15.0,66,0.00,,BKN250,0.00,VWS V14.01,2013-02-18 14:09:00,
2013-02-18 09:10:00,39.7,29.4,30.01,South,183,6.6,17.4,66,0.00,,BKN250,0.00,VWS V14.01,2013-02-18 14:10:00,
2013-02-18 09:11:00,39.6,29.3,30.01,SSW,207,10.3,21.1,66,0.00,,BKN250,0.00,VWS V14.01,2013-02-18 14:11:00,
2013-02-18 09:12:00,39.7,29.4,30.01,South,183,6.6,17.4,66,0.00,,BKN250,0.00,VWS V14.01,2013-02-18 14:12:00,
2013-02-18 09:13:00,39.9,29.6,30.01,SSW,203,13.3,28.7,66,0.00,,BKN250,0.00,VWS V14.01,2013-02-18 14:13:00,
2013-02-18 09:14:00,40.1,29.8,30.01,SE,128,16.6,21.1,66,0.00,,BKN250,0.00,VWS V14.01,2013-02-18 14:14:00,
2013-02-18 09:15:00,40.3,30.0,30.01,SSE,159,16.6,21.1,66,0.00,,BKN250,0.00,VWS V14.01,2013-02-18 14:15:00,
2013-02-18 09:16:00,40.5,30.1,30.01,South,179,8.9,22.1,66,0.00,,BKN250,0.00,VWS V14.01,2013-02-18 14:16:00,
2013-02-18 09:17:00,40.6,30.3,30.01,South,173,13.3,22.1,66,0.00,,BKN250,0.00,VWS V14.01,2013-02-18 14:17:00,
2013-02-18 09:18:00,40.6,30.3,30.01,South,170,6.6,16.9,66,0.00,,BKN250,0.00,VWS V14.01,2013-02-18 14:18:00,
2013-02-18 09:19:00,40.8,30.5,30.01,SSW,203,5.2,8.5,66,0.00,,BKN250,0.00,VWS V14.01,2013-02-18 14:19:00,
2013-02-18 09:20:00,41.0,30.6,30.01,SSW,201,7.4,17.4,66,0.00,,BKN250,0.00,VWS V14.01,2013-02-18 14:20:00,
2013-02-18 09:21:00,41.0,30.6,30.01,SSE,161,9.6,12.2,66,0.00,,BKN250,0.00,VWS V14.01,2013-02-18 14:21:00,
2013-02-18 09:22:00,41.0,30.6,30.01,South,180,6.6,12.2,66,0.00,,BKN250,0.00,VWS V14.01,2013-02-18 14:22:00,
2013-02-18 09:23:00,41.0,30.6,30.01,SSE,160,11.8,18.3,66,0.00,,BKN250,0.00,VWS V14.01,2013-02-18 14:23:00,
2013-02-18 09:24:00,41.2,30.8,30.01,SSW,202,6.6,15.0,66,0.00,,BKN250,0.00,VWS V14.01,2013-02-18 14:24:00,
2013-02-18 09:25:00,41.2,30.8,30.01,SW,220,12.5,16.0,66,0.00,,BKN250,0.00,VWS V14.01,2013-02-18 14:25:00,
2013-02-18 09:26:00,41.5,31.1,30.01,South,178,11.1,18.3,66,0.00,,BKN250,0.00,VWS V14.01,2013-02-18 14:26:00,
2013-02-18 09:27:00,41.5,31.1,30.01,South,178,11.1,18.3,66,0.00,,BKN250,0.00,VWS V14.01,2013-02-18 14:27:00,
2013-02-18 09:28:00,41.7,31.3,30.01,SSW,198,14.4,18.3,66,0.00,,BKN250,0.00,VWS V14.01,2013-02-18 14:28:00,
2013-02-18 09:29:00,41.7,31.3,30.01,SSE,167,10.3,18.3,66,0.00,,BKN250,0.00,VWS V14.01,2013-02-18 14:29:00,
2013-02-18 09:30:00,41.7,31.3,30.01,SSW,197,9.6,18.3,66,0.00,,BKN250,0.00,VWS V14.01,2013-02-18 14:30:00,
2013-02-18 09:31:00,42.1,31.7,30.01,SSE,149,9.6,13.2,66,0.00,,BKN250,0.00,VWS V14.01,2013-02-18 14:31:00,
2013-02-18 09:32:00,42.1,31.7,30.01,SSE,149,9.6,13.2,66,0.00,,BKN250,0.00,VWS V14.01,2013-02-18 14:32:00,
2013-02-18 09:33:00,42.3,31.8,30.01,SE,145,6.6,17.4,66,0.00,,BKN250,0.00,VWS V14.01,2013-02-18 14:33:00,
2013-02-18 09:34:00,42.3,31.8,30.01,South,174,8.9,13.2,66,0.00,,BKN250,0.00,VWS V14.01,2013-02-18 14:34:00,
2013-02-18 09:35:00,42.4,32.0,30.01,South,172,12.5,17.4,66,0.00,,BKN250,0.00,VWS V14.01,2013-02-18 14:35:00,
2013-02-18 09:36:00,42.6,32.2,30.01,SSW,200,5.9,12.2,66,0.00,,BKN250,0.00,VWS V14.01,2013-02-18 14:36:00,
2013-02-18 09:37:00,42.6,32.2,30.01,SSW,200,5.9,12.2,66,0.00,,BKN250,0.00,VWS V14.01,2013-02-18 14:37:00,
2013-02-18 09:38:00,42.6,31.5,30.01,South,184,5.9,16.0,65,0.00,,BKN250,0.00,VWS V14.01,2013-02-18 14:38:00,
2013-02-18 09:39:00,42.6,31.5,30.01,South,183,5.2,11.3,65,0.00,,BKN250,0.00,VWS V14.01,2013-02-18 14:39:00,
2013-02-18 09:40:00,42.8,31.7,30.01,SSE,164,9.6,12.2,65,0.00,,BKN250,0.00,VWS V14.01,2013-02-18 14:40:00,
2013-02-18 09:41:00,42.8,31.7,30.01,SW,220,5.2,21.1,65,0.00,,BKN250,0.00,VWS V14.01,2013-02-18 14:41:00,
2013-02-18 09:42:00,42.8,31.7,30.01,SW,220,5.2,21.1,65,0.00,,BKN250,0.00,VWS V14.01,2013-02-18 14:42:00,
2013-02-18 09:43:00,42.8,31.7,30.01,SW,221,5.9,7.5,65,0.00,,BKN250,0.00,VWS V14.01,2013-02-18 14:43:00,
2013-02-18 09:44:00,42.8,31.7,30.01,SSW,198,6.6,8.5,65,0.00,,BKN250,0.00,VWS V14.01,2013-02-18 14:44:00,
2013-02-18 09:45:00,42.8,31.7,30.01,SSW,194,11.1,16.0,65,0.00,,BKN250,0.00,VWS V14.01,2013-02-18 14:45:00,
2013-02-18 09:46:00,42.8,31.7,30.01,South,170,9.6,16.9,65,0.00,,BKN250,0.00,VWS V14.01,2013-02-18 14:46:00,
2013-02-18 09:47:00,42.8,31.7,30.01,South,170,9.6,16.9,65,0.00,,BKN250,0.00,VWS V14.01,2013-02-18 14:47:00,
2013-02-18 09:48:00,43.0,31.9,30.01,South,185,8.1,12.2,65,0.00,,BKN250,0.00,VWS V14.01,2013-02-18 14:48:00,
2013-02-18 09:49:00,43.0,31.9,30.01,South,172,7.4,11.3,65,0.00,,BKN250,0.00,VWS V14.01,2013-02-18 14:49:00,
2013-02-18 09:50:00,43.0,31.9,30.01,SSW,213,8.9,22.1,65,0.00,,BKN250,0.00,VWS V14.01,2013-02-18 14:50:00,
2013-02-18 09:51:00,43.2,32.0,30.01,SSE,168,11.8,18.3,65,0.00,,BKN250,0.00,VWS V14.01,2013-02-18 14:51:00,
2013-02-18 09:52:00,43.2,32.0,30.01,SSE,168,11.8,18.3,65,0.00,,BKN250,0.00,VWS V14.01,2013-02-18 14:52:00,
2013-02-18 09:53:00,43.3,32.2,30.01,South,182,8.9,23.0,65,0.00,,BKN250,0.00,VWS V14.01,2013-02-18 14:53:00,
2013-02-18 09:54:00,43.3,32.2,30.01,SSW,196,8.1,13.2,65,0.00,,BKN250,0.00,VWS V14.01,2013-02-18 14:54:00,
2013-02-18 09:55:00,43.3,32.2,30.01,South,183,17.3,22.1,65,0.00,,BKN250,0.00,VWS V14.01,2013-02-18 14:55:00,
2013-02-18 09:56:00,43.5,33.0,29.98,South,190,16.6,23.0,66,0.00,,BKN250,0.00,VWS V14.01,2013-02-18 14:56:00,
2013-02-18 09:57:00,43.5,33.0,29.98,South,190,16.6,23.0,66,0.00,,BKN250,0.00,VWS V14.01,2013-02-18 14:57:00,
2013-02-18 09:58:00,43.7,33.2,29.98,South,180,14.4,21.1,66,0.00,,BKN250,0.00,VWS V14.01,2013-02-18 14:58:00,
2013-02-18 09:59:00,43.7,33.2,29.98,South,172,13.7,18.3,66,0.00,,BKN250,0.00,VWS V14.01,2013-02-18 14:59:00,
2013-02-18 10:00:00,43.9,33.4,29.98,SSW,212,13.7,23.0,66,0.00,,BKN250,0.00,VWS V14.01,2013-02-18 15:00:00,
2013-02-18 10:01:00,44.1,33.6,29.98,SSW,198,17.3,22.1,66,0.00,,BKN250,0.00,VWS V14.01,2013-02-18 15:01:00,
2013-02-18 10:02:00,44.1,33.6,29.98,South,171,17.3,22.1,66,0.00,,BKN250,0.00,VWS V14.01,2013-02-18 15:02:00,
2013-02-18 10:03:00,44.1,33.6,29.98,SE,134,6.6,22.1,66,0.00,,BKN250,0.00,VWS V14.01,2013-02-18 15:03:00,
2013-02-18 10:04:00,44.2,33.7,29.98,WSW,237,6.6,22.1,66,0.00,,BKN250,0.00,VWS V14.01,2013-02-18 15:04:00,
2013-02-18 10:05:00,44.2,33.7,29.98,South,173,17.3,22.1,66,0.00,,BKN250,0.00,VWS V14.01,2013-02-18 15:05:00,
2013-02-18 10:06:00,44.4,33.9,29.98,South,173,10.3,16.0,66,0.00,,BKN250,0.00,VWS V14.01,2013-02-18 15:06:00,
2013-02-18 10:07:00,44.4,33.9,29.98,South,173,10.3,16.0,66,0.00,,BKN250,0.00,VWS V14.01,2013-02-18 15:07:00,
2013-02-18 10:08:00,44.6,33.4,29.98,South,182,17.3,22.1,65,0.00,,BKN250,0.00,VWS V14.01,2013-02-18 15:08:00,
2013-02-18 10:09:00,44.6,33.4,29.98,SSE,154,13.7,22.1,65,0.00,,BKN250,0.00,VWS V14.01,2013-02-18 15:09:00,
2013-02-18 10:10:00,44.6,33.4,29.98,South,181,5.9,17.4,65,0.00,,BKN250,0.00,VWS V14.01,2013-02-18 15:10:00,
2013-02-18 10:11:00,44.8,33.6,29.98,SSE,152,17.3,22.1,65,0.00,,BKN250,0.00,VWS V14.01,2013-02-18 15:11:00,
2013-02-18 10:12:00,44.8,33.6,29.98,SW,235,14.4,18.3,65,0.00,,BKN250,0.00,VWS V14.01,2013-02-18 15:12:00,
2013-02-18 10:13:00,44.8,33.6,29.98,South,179,18.1,23.0,65,0.00,,BKN250,0.00,VWS V14.01,2013-02-18 15:13:00,
2013-02-18 10:14:00,45.0,33.8,29.98,South,171,8.9,27.7,65,0.00,,BKN250,0.00,VWS V14.01,2013-02-18 15:14:00,
2013-02-18 10:15:00,45.1,33.9,29.98,SE,126,8.9,11.3,65,0.00,,BKN250,0.00,VWS V14.01,2013-02-18 15:15:00,
2013-02-18 10:16:00,45.1,33.9,29.98,SE,127,5.9,11.3,65,0.00,,BKN250,0.00,VWS V14.01,2013-02-18 15:16:00,
2013-02-18 10:17:00,45.3,34.1,29.98,West,262,14.4,18.3,65,0.00,,BKN250,0.00,VWS V14.01,2013-02-18 15:17:00,
2013-02-18 10:18:00,45.3,34.1,29.98,South,188,6.6,18.3,65,0.00,,BKN250,0.00,VWS V14.01,2013-02-18 15:18:00,
2013-02-18 10:19:00,45.3,34.1,29.98,SSE,159,17.3,22.1,65,0.00,,BKN250,0.00,VWS V14.01,2013-02-18 15:19:00,
2013-02-18 10:20:00,45.5,34.3,29.98,SSW,202,12.5,22.1,65,0.00,,BKN250,0.00,VWS V14.01,2013-02-18 15:20:00,
2013-02-18 10:21:00,45.5,34.3,29.98,SE,139,12.5,16.0,65,0.00,,BKN250,0.00,VWS V14.01,2013-02-18 15:21:00,
2013-02-18 10:22:00,45.5,34.3,29.98,SSW,206,17.3,22.1,65,0.00,,BKN250,0.00,VWS V14.01,2013-02-18 15:22:00,
2013-02-18 10:23:00,45.5,34.3,29.98,SSW,206,17.3,22.1,65,0.00,,BKN250,0.00,VWS V14.01,2013-02-18 15:23:00,
2013-02-18 10:24:00,45.7,34.5,29.98,South,187,13.7,22.1,65,0.00,,BKN250,0.00,VWS V14.01,2013-02-18 15:24:00,
2013-02-18 10:25:00,45.7,34.5,29.98,SE,144,13.3,20.2,65,0.00,,BKN250,0.00,VWS V14.01,2013-02-18 15:25:00,
2013-02-18 10:26:00,45.7,34.5,29.98,SSW,193,13.7,17.4,65,0.00,,BKN250,0.00,VWS V14.01,2013-02-18 15:26:00,
2013-02-18 10:27:00,46.0,34.8,29.98,SW,229,8.9,16.0,65,0.00,,BKN250,0.00,VWS V14.01,2013-02-18 15:27:00,
2013-02-18 10:28:00,46.0,34.8,29.98,SW,229,8.9,16.0,65,0.00,,BKN250,0.00,VWS V14.01,2013-02-18 15:28:00,
2013-02-18 10:29:00,46.0,35.4,29.98,SSW,197,12.5,16.9,66,0.00,,BKN250,0.00,VWS V14.01,2013-02-18 15:29:00,
2013-02-18 10:30:00,46.0,35.4,29.98,South,173,8.9,16.0,66,0.00,,BKN250,0.00,VWS V14.01,2013-02-18 15:30:00,
2013-02-18 10:31:00,46.2,35.6,29.98,SSW,202,6.6,25.8,66,0.00,,BKN250,0.00,VWS V14.01,2013-02-18 15:31:00,
2013-02-18 10:32:00,46.4,35.1,29.98,SW,214,17.3,30.5,65,0.00,,BKN250,0.00,VWS V14.01,2013-02-18 15:32:00,
2013-02-18 10:33:00,46.4,35.1,29.98,SW,214,17.3,30.5,65,0.00,,BKN250,0.00,VWS V14.01,2013-02-18 15:33:00,
2013-02-18 10:34:00,46.4,35.1,29.98,SSE,157,13.3,22.1,65,0.00,,BKN250,0.00,VWS V14.01,2013-02-18 15:34:00,
2013-02-18 10:35:00,46.6,35.3,29.98,South,183,8.9,16.9,65,0.00,,BKN250,0.00,VWS V14.01,2013-02-18 15:35:00,
2013-02-18 10:36:00,46.6,35.3,29.98,SSE,166,9.6,15.0,65,0.00,,BKN250,0.00,VWS V14.01,2013-02-18 15:36:00,
2013-02-18 10:37:00,46.8,35.5,29.98,SW,223,12.5,18.3,65,0.00,,BKN250,0.00,VWS V14.01,2013-02-18 15:37:00,
2013-02-18 10:38:00,46.8,35.5,29.98,SW,223,12.5,18.3,65,0.00,,BKN250,0.00,VWS V14.01,2013-02-18 15:38:00,
2013-02-18 10:39:00,46.9,35.7,29.98,WSW,242,9.6,18.3,65,0.00,,BKN250,0.00,VWS V14.01,2013-02-18 15:39:00,
2013-02-18 10:40:00,46.9,35.7,29.98,ESE,106,5.2,13.2,65,0.00,,BKN250,0.00,VWS V14.01,2013-02-18 15:40:00,
2013-02-18 10:41:00,47.1,35.8,29.98,SW,226,9.6,12.2,65,0.00,,BKN250,0.00,VWS V14.01,2013-02-18 15:41:00,
2013-02-18 10:42:00,47.3,36.0,29.98,SSW,192,10.3,16.9,65,0.00,,BKN250,0.00,VWS V14.01,2013-02-18 15:42:00,
2013-02-18 10:43:00,47.3,36.0,29.98,SSW,192,10.3,16.9,65,0.00,,BKN250,0.00,VWS V14.01,2013-02-18 15:43:00,
2013-02-18 10:44:00,47.3,36.7,29.98,South,181,5.9,16.0,66,0.00,,BKN250,0.00,VWS V14.01,2013-02-18 15:44:00,
2013-02-18 10:45:00,47.3,36.7,29.98,South,189,9.6,21.1,66,0.00,,BKN250,0.00,VWS V14.01,2013-02-18 15:45:00,
2013-02-18 10:46:00,47.5,36.8,29.98,SSE,154,18.1,26.8,66,0.00,,BKN250,0.00,VWS V14.01,2013-02-18 15:46:00,
2013-02-18 10:47:00,47.8,36.5,29.98,SSW,202,13.7,17.4,65,0.00,,BKN250,0.00,VWS V14.01,2013-02-18 15:47:00,
2013-02-18 10:48:00,47.8,36.5,29.98,SSW,202,13.7,17.4,65,0.00,,BKN250,0.00,VWS V14.01,2013-02-18 15:48:00,
2013-02-18 10:49:00,47.8,36.5,29.98,South,183,10.3,25.8,65,0.00,,BKN250,0.00,VWS V14.01,2013-02-18 15:49:00,
2013-02-18 10:50:00,47.8,36.5,29.98,SSW,206,5.2,13.2,65,0.00,,BKN250,0.00,VWS V14.01,2013-02-18 15:50:00,
2013-02-18 10:51:00,48.0,36.7,29.98,SSE,153,9.6,18.3,65,0.00,,BKN250,0.00,VWS V14.01,2013-02-18 15:51:00,
2013-02-18 10:52:00,48.2,36.8,29.98,South,175,13.7,19.3,65,0.00,,BKN250,0.00,VWS V14.01,2013-02-18 15:52:00,
2013-02-18 10:53:00,48.2,36.8,29.98,SSE,164,15.1,22.1,65,0.00,,BKN250,0.00,VWS V14.01,2013-02-18 15:53:00,
2013-02-18 10:54:00,48.4,37.0,29.98,South,181,12.5,19.3,65,0.00,,BKN250,0.00,VWS V14.01,2013-02-18 15:54:00,
2013-02-18 10:55:00,48.6,37.2,29.98,WNW,285,12.5,18.3,65,0.00,,BKN250,0.00,VWS V14.01,2013-02-18 15:55:00,
2013-02-18 10:56:00,48.6,37.2,29.98,SSW,205,5.2,16.0,65,0.00,,BKN250,0.00,VWS V14.01,2013-02-18 15:56:00,
2013-02-18 10:57:00,48.7,37.4,29.98,West,269,16.6,25.8,65,0.00,,BKN250,0.00,VWS V14.01,2013-02-18 15:57:00,
2013-02-18 10:58:00,48.7,37.4,29.98,South,188,20.3,25.8,65,0.00,,BKN250,0.00,VWS V14.01,2013-02-18 15:58:00,
2013-02-18 10:59:00,48.7,37.4,29.98,South,175,18.1,32.4,65,0.00,,BKN250,0.00,VWS V14.01,2013-02-18 15:59:00,
2013-02-18 11:00:00,48.9,37.5,29.98,South,172,12.5,23.0,65,0.00,,BKN250,0.00,VWS V14.01,2013-02-18 16:00:00,
2013-02-18 11:01:00,48.9,37.5,29.98,SSW,194,6.6,25.8,65,0.00,,BKN250,0.00,VWS V14.01,2013-02-18 16:01:00,
2013-02-18 11:02:00,48.9,37.5,29.98,SSE,168,13.3,16.9,65,0.00,,BKN250,0.00,VWS V14.01,2013-02-18 16:02:00,
2013-02-18 11:03:00,49.3,37.9,29.98,South,173,13.7,22.1,65,0.00,,BKN250,0.00,VWS V14.01,2013-02-18 16:03:00,
2013-02-18 11:04:00,49.3,37.9,29.98,South,184,9.6,22.1,65,0.00,,BKN250,0.00,VWS V14.01,2013-02-18 16:04:00,
2013-02-18 11:05:00,49.3,37.9,29.98,South,185,9.6,21.1,65,0.00,,BKN250,0.00,VWS V14.01,2013-02-18 16:05:00,
2013-02-18 11:06:00,49.5,38.0,29.98,SSW,192,5.9,12.2,65,0.00,,BKN250,0.00,VWS V14.01,2013-02-18 16:06:00,
2013-02-18 11:07:00,49.5,38.0,29.98,South,187,4.4,8.5,65,0.00,,BKN250,0.00,VWS V14.01,2013-02-18 16:07:00,
2013-02-18 11:08:00,49.6,38.2,29.98,SE,131,13.7,18.3,65,0.00,,BKN250,0.00,VWS V14.01,2013-02-18 16:08:00,
2013-02-18 11:09:00,49.6,38.2,29.98,SSE,163,21.0,26.8,65,0.00,,BKN250,0.00,VWS V14.01,2013-02-18 16:09:00,
2013-02-18 11:10:00,49.8,38.4,29.98,SW,218,10.3,26.8,65,0.00,,BKN250,0.00,VWS V14.01,2013-02-18 16:10:00,
2013-02-18 11:11:00,50.0,38.6,29.98,South,170,16.6,24.0,65,0.00,,BKN250,0.00,VWS V14.01,2013-02-18 16:11:00,
2013-02-18 11:12:00,50.0,38.6,29.98,SSE,167,19.6,24.9,65,0.00,,BKN250,0.00,VWS V14.01,2013-02-18 16:12:00,
2013-02-18 11:13:00,50.2,38.7,29.98,SSW,204,9.6,19.3,65,0.00,,BKN250,0.00,VWS V14.01,2013-02-18 16:13:00,
2013-02-18 11:14:00,50.2,38.7,29.98,SSW,204,9.6,19.3,65,0.00,,BKN250,0.00,VWS V14.01,2013-02-18 16:14:00,
2013-02-18 11:15:00,50.4,38.9,29.98,South,170,12.5,18.3,65,0.00,,BKN250,0.00,VWS V14.01,2013-02-18 16:15:00,
2013-02-18 11:16:00,50.4,38.9,29.98,SW,226,5.2,16.0,65,0.00,,BKN250,0.00,VWS V14.01,2013-02-18 16:16:00,
2013-02-18 11:17:00,50.5,39.1,29.98,SSE,159,9.6,20.2,65,0.00,,BKN250,0.00,VWS V14.01,2013-02-18 16:17:00,
2013-02-18 11:18:00,50.7,39.2,29.98,South,188,8.9,16.9,65,0.00,,BKN250,0.00,VWS V14.01,2013-02-18 16:18:00,
2013-02-18 11:19:00,50.7,39.2,29.98,South,188,8.9,16.9,65,0.00,,BKN250,0.00,VWS V14.01,2013-02-18 16:19:00,
2013-02-18 11:20:00,50.9,39.4,29.98,SW,225,5.2,11.3,65,0.00,,BKN250,0.00,VWS V14.01,2013-02-18 16:20:00,
2013-02-18 11:21:00,51.1,39.6,29.98,WNW,297,9.6,12.2,65,0.00,,BKN250,0.00,VWS V14.01,2013-02-18 16:21:00,
2013-02-18 11:22:00,51.1,39.6,29.98,SSE,166,8.9,17.4,65,0.00,,BKN250,0.00,VWS V14.01,2013-02-18 16:22:00,
2013-02-18 11:23:00,51.3,40.4,29.98,WSW,248,5.9,18.3,66,0.00,,BKN250,0.00,VWS V14.01,2013-02-18 16:23:00,
2013-02-18 11:24:00,51.3,40.4,29.98,WSW,248,5.9,18.3,66,0.00,,BKN250,0.00,VWS V14.01,2013-02-18 16:24:00,
2013-02-18 11:25:00,51.4,40.6,29.98,SSE,155,8.9,17.4,66,0.00,,BKN250,0.00,VWS V14.01,2013-02-18 16:25:00,
2013-02-18 11:26:00,51.4,40.6,29.98,South,169,14.4,26.8,66,0.00,,BKN250,0.00,VWS V14.01,2013-02-18 16:26:00,
2013-02-18 11:27:00,51.6,41.4,29.95,South,169,17.3,22.1,68,0.00,,BKN250,0.00,VWS V14.01,2013-02-18 16:27:00,
2013-02-18 11:28:00,52.0,40.4,29.95,SSW,199,8.9,16.9,65,0.00,,BKN250,0.00,VWS V14.01,2013-02-18 16:28:00,
2013-02-18 11:29:00,51.8,40.9,29.95,WSW,244,13.3,16.9,66,0.00,,BKN250,0.00,VWS V14.01,2013-02-18 16:29:00,
2013-02-18 11:30:00,52.0,40.4,29.95,WSW,244,10.3,16.9,65,0.00,,BKN250,0.00,VWS V14.01,2013-02-18 16:30:00,
2013-02-18 11:31:00,52.0,40.4,29.95,South,184,17.3,23.0,65,0.00,,BKN250,0.00,VWS V14.01,2013-02-18 16:31:00,
2013-02-18 11:32:00,52.3,41.5,29.95,SSE,168,31.7,40.4,66,0.00,,BKN250,0.00,VWS V14.01,2013-02-18 16:32:00,
2013-02-18 11:33:00,52.5,41.6,29.95,SSW,210,18.1,23.0,66,0.00,,BKN250,0.00,VWS V14.01,2013-02-18 16:33:00,
2013-02-18 11:34:00,52.5,41.6,29.95,South,190,5.9,25.8,66,0.00,,BKN250,0.00,VWS V14.01,2013-02-18 16:34:00,
2013-02-18 11:35:00,52.5,41.6,29.95,SW,216,15.1,23.0,66,0.00,,BKN250,0.00,VWS V14.01,2013-02-18 16:35:00,
2013-02-18 11:36:00,52.5,41.6,29.95,SW,229,14.4,19.3,66,0.00,,BKN250,0.00,VWS V14.01,2013-02-18 16:36:00,
2013-02-18 11:37:00,52.7,41.8,29.95,WSW,256,8.9,26.8,66,0.00,,BKN250,0.00,VWS V14.01,2013-02-18 16:37:00,
2013-02-18 11:38:00,52.7,41.8,29.95,SSW,197,21.0,26.8,66,0.00,,BKN250,0.00,VWS V14.01,2013-02-18 16:38:00,
2013-02-18 11:39:00,52.9,42.0,29.95,SW,232,11.8,26.8,66,0.00,,BKN250,0.00,VWS V14.01,2013-02-18 16:39:00,
2013-02-18 11:40:00,52.7,41.8,29.95,WSW,244,10.3,26.8,66,0.00,,BKN250,0.00,VWS V14.01,2013-02-18 16:40:00,
2013-02-18 11:41:00,52.9,42.0,29.95,SSE,154,9.6,13.2,66,0.00,,BKN250,0.00,VWS V14.01,2013-02-18 16:41:00,
2013-02-18 11:42:00,52.9,42.0,29.95,SSE,167,6.6,12.2,66,0.00,,BKN250,0.00,VWS V14.01,2013-02-18 16:42:00,
2013-02-18 11:43:00,53.1,42.1,29.95,SSW,192,13.3,23.0,66,0.00,,BKN250,0.00,VWS V14.01,2013-02-18 16:43:00,
2013-02-18 11:44:00,53.1,42.1,29.95,SSW,200,12.5,17.4,66,0.00,,BKN250,0.00,VWS V14.01,2013-02-18 16:44:00,
2013-02-18 11:45:00,53.1,42.1,29.95,South,180,8.9,17.4,66,0.00,,BKN250,0.00,VWS V14.01,2013-02-18 16:45:00,
2013-02-18 11:46:00,53.2,42.3,29.95,West,279,14.4,19.3,66,0.00,,BKN250,0.00,VWS V14.01,2013-02-18 16:46:00,
2013-02-18 11:47:00,53.4,42.5,29.95,South,180,6.6,18.3,66,0.00,,BKN250,0.00,VWS V14.01,2013-02-18 16:47:00,
2013-02-18 11:48:00,53.6,42.0,29.95,SSW,194,12.5,16.0,65,0.00,,BKN250,0.00,VWS V14.01,2013-02-18 16:48:00,
2013-02-18 11:49:00,53.6,42.0,29.95,South,182,8.9,22.1,65,0.00,,BKN250,0.00,VWS V14.01,2013-02-18 16:49:00,
2013-02-18 11:50:00,53.6,42.0,29.95,South,182,8.9,22.1,65,0.00,,BKN250,0.00,VWS V14.01,2013-02-18 16:50:00,
2013-02-18 11:51:00,53.6,42.0,29.95,WSW,250,14.4,18.3,65,0.00,,BKN250,0.00,VWS V14.01,2013-02-18 16:51:00,
2013-02-18 11:52:00,53.8,42.2,29.95,South,172,6.6,18.3,65,0.00,,BKN250,0.00,VWS V14.01,2013-02-18 16:52:00,
2013-02-18 11:53:00,53.8,42.2,29.95,SSW,209,9.6,18.3,65,0.00,,BKN250,0.00,VWS V14.01,2013-02-18 16:53:00,
2013-02-18 11:54:00,54.0,42.3,29.95,SSW,197,12.5,16.0,65,0.00,,BKN250,0.00,VWS V14.01,2013-02-18 16:54:00,
2013-02-18 11:55:00,54.0,42.3,29.95,SSW,197,12.5,16.0,65,0.00,,BKN250,0.00,VWS V14.01,2013-02-18 16:55:00,
2013-02-18 11:56:00,54.0,42.3,29.95,South,188,5.9,35.2,65,0.00,,BKN250,0.00,VWS V14.01,2013-02-18 16:56:00,
2013-02-18 11:57:00,54.0,42.3,29.95,WSW,244,9.6,20.2,65,0.00,,BKN250,0.00,VWS V14.01,2013-02-18 16:57:00,
2013-02-18 11:58:00,54.0,42.3,29.95,SW,223,5.9,13.2,65,0.00,,BKN250,0.00,VWS V14.01,2013-02-18 16:58:00,
2013-02-18 11:59:00,54.1,42.5,29.95,SW,226,9.6,24.9,65,0.00,,BKN250,0.00,VWS V14.01,2013-02-18 16:59:00,
2013-02-18 12:00:00,54.1,42.5,29.95,SW,226,9.6,24.9,65,0.00,,BKN250,0.00,VWS V14.01,2013-02-18 17:00:00,
2013-02-18 12:01:00,54.3,42.7,29.95,SSW,212,9.6,18.3,65,0.00,,BKN250,0.00,VWS V14.01,2013-02-18 17:01:00,
2013-02-18 12:02:00,54.3,42.7,29.95,South,182,9.6,16.0,65,0.00,,BKN250,0.00,VWS V14.01,2013-02-18 17:02:00,
2013-02-18 12:03:00,54.3,43.3,29.95,SSE,164,16.6,24.0,66,0.00,,BKN250,0.00,VWS V14.01,2013-02-18 17:03:00,
2013-02-18 12:04:00,54.5,42.8,29.95,WSW,238,8.9,24.0,65,0.00,,BKN250,0.00,VWS V14.01,2013-02-18 17:04:00,
2013-02-18 12:05:00,54.5,42.8,29.95,WSW,238,8.9,24.0,65,0.00,,BKN250,0.00,VWS V14.01,2013-02-18 17:05:00,
2013-02-18 12:06:00,54.7,43.0,29.95,South,190,8.9,26.8,65,0.00,,BKN250,0.00,VWS V14.01,2013-02-18 17:06:00,
2013-02-18 12:07:00,54.7,43.0,29.95,SW,225,4.4,11.3,65,0.00,,BKN250,0.00,VWS V14.01,2013-02-18 17:07:00,
2013-02-18 12:08:00,54.9,43.2,29.95,SSW,205,6.6,8.5,65,0.00,,BKN250,0.00,VWS V14.01,2013-02-18 17:08:00,
2013-02-18 12:09:00,55.0,43.3,29.95,West,264,8.9,21.1,65,0.00,,BKN250,0.00,VWS V14.01,2013-02-18 17:09:00,
2013-02-18 12:10:00,55.0,43.3,29.95,West,264,8.9,21.1,65,0.00,,BKN250,0.00,VWS V14.01,2013-02-18 17:10:00,
2013-02-18 12:11:00,55.0,43.3,29.95,SW,218,5.9,12.2,65,0.00,,BKN250,0.00,VWS V14.01,2013-02-18 17:11:00,
2013-02-18 12:12:00,55.2,43.5,29.95,SSW,205,15.9,21.1,65,0.00,,BKN250,0.00,VWS V14.01,2013-02-18 17:12:00,
2013-02-18 12:13:00,55.2,43.5,29.95,SE,140,9.6,31.5,65,0.00,,BKN250,0.00,VWS V14.01,2013-02-18 17:13:00,
2013-02-18 12:14:00,55.6,43.8,29.95,SSE,165,9.6,18.3,65,0.00,,BKN250,0.00,VWS V14.01,2013-02-18 17:14:00,
2013-02-18 12:15:00,55.6,43.8,29.95,WSW,242,14.4,21.1,65,0.00,,BKN250,0.00,VWS V14.01,2013-02-18 17:15:00,
2013-02-18 12:16:00,55.6,43.2,29.95,South,179,18.1,23.0,63,0.00,,BKN250,0.00,VWS V14.01,2013-02-18 17:16:00,
2013-02-18 12:17:00,55.8,43.3,29.95,SSW,201,14.4,23.0,63,0.00,,BKN250,0.00,VWS V14.01,2013-02-18 17:17:00,
2013-02-18 12:18:00,55.9,43.5,29.95,SSE,162,8.9,21.1,63,0.00,,BKN250,0.00,VWS V14.01,2013-02-18 17:18:00,
2013-02-18 12:19:00,56.1,43.7,29.95,SSW,197,18.1,23.0,63,0.00,,BKN250,0.00,VWS V14.01,2013-02-18 17:19:00,
2013-02-18 12:20:00,56.3,43.8,29.95,WSW,249,12.5,24.0,63,0.00,,BKN250,0.00,VWS V14.01,2013-02-18 17:20:00,
2013-02-18 12:21:00,56.3,43.8,29.95,WNW,284,14.4,24.0,63,0.00,,BKN250,0.00,VWS V14.01,2013-02-18 17:21:00,
2013-02-18 12:22:00,56.5,43.3,29.95,South,181,9.6,18.3,61,0.00,,BKN250,0.00,VWS V14.01,2013-02-18 17:22:00,
2013-02-18 12:23:00,56.5,43.3,29.95,WSW,240,9.6,12.2,61,0.00,,BKN250,0.00,VWS V14.01,2013-02-18 17:23:00,
2013-02-18 12:24:00,56.5,43.3,29.95,South,178,6.6,15.0,61,0.00,,BKN250,0.00,VWS V14.01,2013-02-18 17:24:00,
2013-02-18 12:25:00,56.5,43.3,29.95,SW,216,20.3,32.4,61,0.00,,BKN250,0.00,VWS V14.01,2013-02-18 17:25:00,
2013-02-18 12:26:00,56.5,43.3,29.95,SW,216,20.3,32.4,61,0.00,,BKN250,0.00,VWS V14.01,2013-02-18 17:26:00,
2013-02-18 12:27:00,56.7,43.5,29.95,WSW,252,9.6,25.8,61,0.00,,BKN250,0.00,VWS V14.01,2013-02-18 17:27:00,
2013-02-18 12:28:00,56.7,43.5,29.95,SW,216,13.3,16.9,61,0.00,,BKN250,0.00,VWS V14.01,2013-02-18 17:28:00,
2013-02-18 12:29:00,56.8,43.6,29.95,SSE,154,6.6,16.9,61,0.00,,BKN250,0.00,VWS V14.01,2013-02-18 17:29:00,
2013-02-18 12:30:00,56.8,43.6,29.95,South,190,18.1,23.0,61,0.00,,BKN250,0.00,VWS V14.01,2013-02-18 17:30:00,
2013-02-18 12:31:00,56.7,43.5,29.95,South,190,18.1,23.0,61,0.00,,BKN250,0.00,VWS V14.01,2013-02-18 17:31:00,
2013-02-18 12:32:00,56.7,43.5,29.95,SSE,151,8.9,23.0,61,0.00,,BKN250,0.00,VWS V14.01,2013-02-18 17:32:00,
2013-02-18 12:33:00,56.7,43.5,29.95,SSW,192,9.6,18.3,61,0.00,,BKN250,0.00,VWS V14.01,2013-02-18 17:33:00,
2013-02-18 12:34:00,56.7,43.5,29.95,SSW,194,8.9,16.0,61,0.00,,BKN250,0.00,VWS V14.01,2013-02-18 17:34:00,
2013-02-18 12:35:00,56.8,43.6,29.95,West,264,6.6,16.9,61,0.00,,BKN250,0.00,VWS V14.01,2013-02-18 17:35:00,
2013-02-18 12:36:00,56.8,43.6,29.95,West,264,6.6,16.9,61,0.00,,BKN250,0.00,VWS V14.01,2013-02-18 17:36:00,
2013-02-18 12:37:00,56.8,43.6,29.95,WSW,242,14.4,18.3,61,0.00,,BKN250,0.00,VWS V14.01,2013-02-18 17:37:00,
2013-02-18 12:38:00,56.8,43.6,29.95,SSW,210,13.7,18.3,61,0.00,,BKN250,0.00,VWS V14.01,2013-02-18 17:38:00,
2013-02-18 12:39:00,56.7,43.5,29.95,SSW,201,9.6,21.1,61,0.00,,BKN250,0.00,VWS V14.01,2013-02-18 17:39:00,
2013-02-18 12:40:00,56.7,43.5,29.92,SSW,212,9.6,22.1,61,0.00,,BKN250,0.00,VWS V14.01,2013-02-18 17:40:00,
2013-02-18 12:41:00,56.7,43.5,29.92,South,190,17.3,32.4,61,0.00,,BKN250,0.00,VWS V14.01,2013-02-18 17:41:00,
2013-02-18 12:42:00,56.7,43.5,29.92,South,186,9.6,22.1,61,0.00,,BKN250,0.00,VWS V14.01,2013-02-18 17:42:00,
2013-02-18 12:43:00,56.7,43.5,29.92,SSW,199,12.5,16.0,61,0.00,,BKN250,0.00,VWS V14.01,2013-02-18 17:43:00,
2013-02-18 12:44:00,56.7,43.5,29.92,SW,217,13.3,16.9,61,0.00,,BKN250,0.00,VWS V14.01,2013-02-18 17:44:00,
2013-02-18 12:45:00,56.7,44.2,29.92,SSE,165,11.1,22.1,63,0.00,,BKN250,0.00,VWS V14.01,2013-02-18 17:45:00,
2013-02-18 12:46:00,56.7,44.2,29.92,South,176,17.3,26.8,63,0.00,,BKN250,0.00,VWS V14.01,2013-02-18 17:46:00,
2013-02-18 12:47:00,56.7,44.2,29.92,SSW,197,4.4,22.1,63,0.00,,BKN250,0.00,VWS V14.01,2013-02-18 17:47:00,
2013-02-18 12:48:00,56.7,43.5,29.92,SSE,168,6.6,10.3,61,0.00,,BKN250,0.00,VWS V14.01,2013-02-18 17:48:00,
2013-02-18 12:49:00,56.7,43.5,29.92,South,181,6.6,8.5,61,0.00,,BKN250,0.00,VWS V14.01,2013-02-18 17:49:00,
2013-02-18 12:50:00,56.8,44.3,29.92,SSW,197,12.5,22.1,63,0.00,,BKN250,0.00,VWS V14.01,2013-02-18 17:50:00,
2013-02-18 12:51:00,56.8,43.6,29.92,SSE,152,8.9,24.0,61,0.00,,BKN250,0.00,VWS V14.01,2013-02-18 17:51:00,
2013-02-18 12:52:00,56.8,43.6,29.92,SSE,152,8.9,24.0,61,0.00,,BKN250,0.00,VWS V14.01,2013-02-18 17:52:00,
2013-02-18 12:53:00,56.8,43.6,29.92,South,171,13.7,21.1,61,0.00,,BKN250,0.00,VWS V14.01,2013-02-18 17:53:00,
2013-02-18 12:54:00,56.8,43.6,29.92,South,185,14.4,30.5,61,0.00,,BKN250,0.00,VWS V14.01,2013-02-18 17:54:00,
2013-02-18 12:55:00,57.0,43.8,29.92,SE,130,13.3,18.3,61,0.00,,BKN250,0.00,VWS V14.01,2013-02-18 17:55:00,
2013-02-18 12:56:00,57.0,43.8,29.92,SSE,168,23.3,36.6,61,0.00,,BKN250,0.00,VWS V14.01,2013-02-18 17:56:00,
2013-02-18 12:57:00,57.0,43.8,29.92,SSE,166,17.3,36.6,61,0.00,,BKN250,0.00,VWS V14.01,2013-02-18 17:57:00,
2013-02-18 12:58:00,57.0,43.8,29.92,SSE,166,17.3,22.1,61,0.00,,BKN250,0.00,VWS V14.01,2013-02-18 17:58:00,
2013-02-18 12:59:00,57.0,43.8,29.92,WNW,303,16.6,25.8,61,0.00,,BKN250,0.00,VWS V14.01,2013-02-18 17:59:00,
2013-02-18 13:00:00,57.0,43.1,29.92,South,184,8.9,21.1,60,0.00,,BKN250,0.00,VWS V14.01,2013-02-18 18:00:00,
2013-02-18 13:01:00,57.0,43.1,29.92,SSE,161,6.6,18.3,60,0.00,,BKN250,0.00,VWS V14.01,2013-02-18 18:01:00,
2013-02-18 13:02:00,57.0,43.1,29.92,SSW,211,18.1,23.0,60,0.00,,BKN250,0.00,VWS V14.01,2013-02-18 18:02:00,
2013-02-18 13:03:00,57.2,43.2,29.92,SW,232,5.9,27.7,60,0.00,,BKN250,0.00,VWS V14.01,2013-02-18 18:03:00,
2013-02-18 13:04:00,57.4,43.4,29.92,SSE,166,5.2,16.9,60,0.00,,BKN250,0.00,VWS V14.01,2013-02-18 18:04:00,
2013-02-18 13:05:00,57.4,43.4,29.92,SSE,151,21.0,26.8,60,0.00,,BKN250,0.00,VWS V14.01,2013-02-18 18:05:00,
2013-02-18 13:06:00,57.7,43.0,29.92,West,265,10.3,23.0,58,0.00,,BKN250,0.00,VWS V14.01,2013-02-18 18:06:00,
2013-02-18 13:07:00,57.7,43.0,29.92,SSW,196,14.4,23.0,58,0.00,,BKN250,0.00,VWS V14.01,2013-02-18 18:07:00,
2013-02-18 13:08:00,57.7,42.2,29.92,South,184,17.3,25.8,56,0.00,,BKN250,0.00,VWS V14.01,2013-02-18 18:08:00,
2013-02-18 13:09:00,57.7,42.2,29.92,South,171,20.3,25.8,56,0.00,,BKN250,0.00,VWS V14.01,2013-02-18 18:09:00,
2013-02-18 13:10:00,57.7,42.2,29.92,South,170,11.8,27.7,56,0.00,,BKN250,0.00,VWS V14.01,2013-02-18 18:10:00,
2013-02-18 13:11:00,57.7,42.2,29.92,SSE,154,13.3,21.1,56,0.00,,BKN250,0.00,VWS V14.01,2013-02-18 18:11:00,
2013-02-18 13:12:00,57.7,42.2,29.92,SSE,154,13.3,21.1,56,0.00,,BKN250,0.00,VWS V14.01,2013-02-18 18:12:00,
2013-02-18 13:16:00,57.9,41.6,29.92,SSW,205,9.6,13.2,54,0.00,,BKN250,0.00,VWS V14.01,2013-02-18 18:16:00,
2013-02-18 13:22:00,57.9,39.9,29.92,SSW,198,6.6,8.5,51,0.00,,BKN250,0.00,VWS V14.01,2013-02-18 18:22:00,
2013-02-18 13:24:00,57.9,39.9,29.92,WSW,252,16.6,21.1,51,0.00,,BKN250,0.00,VWS V14.01,2013-02-18 18:24:00,
2013-02-18 13:25:00,57.9,39.9,29.92,South,172,26.9,34.3,51,0.00,,BKN250,0.00,VWS V14.01,2013-02-18 18:25:00,
2013-02-18 13:26:00,57.9,39.9,29.89,WSW,240,8.9,34.3,51,0.00,,BKN250,0.00,VWS V14.01,2013-02-18 18:26:00,
2013-02-18 13:27:00,58.1,40.9,29.89,West,259,5.9,16.0,53,0.00,,BKN250,0.00,VWS V14.01,2013-02-18 18:27:00,
2013-02-18 13:33:00,58.5,39.5,29.89,SSE,167,15.9,20.2,49,0.00,,BKN250,0.00,VWS V14.01,2013-02-18 18:33:00,
2013-02-18 13:38:00,58.3,39.4,29.89,South,182,17.3,22.1,49,0.00,,BKN250,0.00,VWS V14.01,2013-02-18 18:38:00,
2013-02-18 13:43:00,59.0,39.1,29.89,South,173,5.2,23.0,48,0.00,,BKN250,0.00,VWS V14.01,2013-02-18 18:43:00,
2013-02-18 13:48:00,59.2,39.3,29.89,SSW,213,11.1,16.9,48,0.00,,BKN230,0.00,VWS V14.01,2013-02-18 18:48:00,
2013-02-18 13:53:00,59.4,39.5,29.89,South,186,5.2,16.9,48,0.00,,BKN230,0.00,VWS V14.01,2013-02-18 18:53:00,
2013-02-18 13:59:00,59.7,39.8,29.89,South,173,9.6,18.3,48,0.00,,BKN230,0.00,VWS V14.01,2013-02-18 18:59:00,
2013-02-18 14:04:00,59.9,40.0,29.89,South,173,16.6,21.1,48,0.00,,BKN230,0.00,VWS V14.01,2013-02-18 19:04:00,
2013-02-18 14:09:00,59.9,39.0,29.89,SW,231,6.6,20.2,46,0.00,,BKN230,0.00,VWS V14.01,2013-02-18 19:09:00,
2013-02-18 14:14:00,59.4,38.5,29.89,SSE,167,5.9,17.4,46,0.00,,BKN230,0.00,VWS V14.01,2013-02-18 19:14:00,
2013-02-18 14:19:00,59.4,38.5,29.89,SSW,209,9.6,30.5,46,0.00,,BKN230,0.00,VWS V14.01,2013-02-18 19:19:00,
2013-02-18 14:24:00,59.5,38.7,29.89,WSW,237,14.4,18.3,46,0.00,,BKN230,0.00,VWS V14.01,2013-02-18 19:24:00,
2013-02-18 14:29:00,59.2,38.4,29.86,South,173,13.3,23.0,46,0.00,,BKN230,0.00,VWS V14.01,2013-02-18 19:29:00,
2013-02-18 14:34:00,59.4,38.5,29.86,SSE,165,17.3,29.6,46,0.00,,BKN230,0.00,VWS V14.01,2013-02-18 19:34:00,
2013-02-18 14:39:00,59.2,38.4,29.86,South,184,18.1,23.0,46,0.00,,BKN230,0.00,VWS V14.01,2013-02-18 19:39:00,
2013-02-18 14:44:00,59.0,38.2,29.86,SW,217,6.6,23.0,46,0.00,,BKN230,0.00,VWS V14.01,2013-02-18 19:44:00,
2013-02-18 14:49:00,59.2,38.4,29.86,SSE,155,7.4,27.7,46,0.00,,BKN230,0.00,VWS V14.01,2013-02-18 19:49:00,
2013-02-18 14:54:00,59.0,37.2,29.86,SSW,200,10.3,16.9,44,0.00,,BKN230,0.00,VWS V14.01,2013-02-18 19:54:00,
2013-02-18 14:59:00,59.0,38.2,29.86,South,189,12.5,19.3,46,0.00,,BKN230,0.00,VWS V14.01,2013-02-18 19:59:00,
2013-02-18 15:05:00,59.4,37.6,29.86,SSW,213,9.6,18.3,44,0.00,,BKN230,0.00,VWS V14.01,2013-02-18 20:05:00,
2013-02-18 15:10:00,59.7,37.9,29.86,SSE,166,13.3,17.4,44,0.00,,BKN230,0.00,VWS V14.01,2013-02-18 20:10:00,
2013-02-18 15:15:00,59.5,37.7,29.83,NNW,330,5.2,12.2,44,0.00,,BKN230,0.00,VWS V14.01,2013-02-18 20:15:00,
2013-02-18 15:20:00,59.5,37.7,29.83,East,93,21.8,27.7,44,0.00,,BKN230,0.00,VWS V14.01,2013-02-18 20:20:00,
2013-02-18 15:25:00,59.7,37.9,29.83,WSW,254,12.5,24.9,44,0.00,,BKN230,0.00,VWS V14.01,2013-02-18 20:25:00,
2013-02-18 15:30:00,59.5,37.7,29.83,South,171,5.9,21.1,44,0.00,,BKN230,0.00,VWS V14.01,2013-02-18 20:30:00,
2013-02-18 15:35:00,59.4,37.6,29.83,SW,224,16.6,32.4,44,0.00,,BKN230,0.00,VWS V14.01,2013-02-18 20:35:00,
2013-02-18 15:40:00,59.5,37.7,29.83,SSE,162,12.5,18.3,44,0.00,,BKN230,0.00,VWS V14.01,2013-02-18 20:40:00,
2013-02-18 15:45:00,59.7,37.9,29.83,SSW,195,13.3,22.1,44,0.00,,BKN230,0.00,VWS V14.01,2013-02-18 20:45:00,
2013-02-18 15:50:00,59.5,37.7,29.83,SSW,203,11.1,28.7,44,0.00,,BKN230,0.00,VWS V14.01,2013-02-18 20:50:00,
2013-02-18 15:55:00,59.5,36.8,29.80,SSW,211,12.5,16.0,42,0.00,,BKN230,0.00,VWS V14.01,2013-02-18 20:55:00,
2013-02-18 16:00:00,59.5,36.8,29.80,SW,222,12.5,21.1,42,0.00,,BKN230,0.00,VWS V14.01,2013-02-18 21:00:00,
2013-02-18 16:05:00,59.4,36.6,29.80,SW,223,11.8,23.0,42,0.00,,BKN230,0.00,VWS V14.01,2013-02-18 21:05:00,
2013-02-18 16:10:00,59.0,36.3,29.80,WSW,252,7.4,25.8,42,0.00,,BKN230,0.00,VWS V14.01,2013-02-18 21:10:00,
2013-02-18 16:15:00,58.8,37.1,29.80,South,172,18.1,29.6,44,0.00,,BKN230,0.00,VWS V14.01,2013-02-18 21:15:00,
2013-02-18 16:20:00,58.6,36.9,29.80,South,170,14.4,20.2,44,0.00,,BKN230,0.00,VWS V14.01,2013-02-18 21:20:00,
2013-02-18 16:25:00,58.5,36.8,29.80,South,173,17.3,23.0,44,0.00,,BKN230,0.00,VWS V14.01,2013-02-18 21:25:00,
2013-02-18 16:30:00,58.5,36.8,29.80,SSW,194,18.1,26.8,44,0.00,,BKN230,0.00,VWS V14.01,2013-02-18 21:30:00,
2013-02-18 16:35:00,58.5,36.8,29.80,South,184,10.3,13.2,44,0.00,,BKN230,0.00,VWS V14.01,2013-02-18 21:35:00,
2013-02-18 16:40:00,58.3,36.6,29.80,West,273,8.1,16.9,44,0.00,,BKN230,0.00,VWS V14.01,2013-02-18 21:40:00,
2013-02-18 16:45:00,58.3,36.6,29.80,SSE,160,17.3,37.6,44,0.00,,BKN230,0.00,VWS V14.01,2013-02-18 21:45:00,
2013-02-18 16:50:00,58.5,36.8,29.80,SW,228,17.3,27.7,44,0.00,,BKN230,0.00,VWS V14.01,2013-02-18 21:50:00,
2013-02-18 16:55:00,58.3,36.6,29.80,South,173,12.5,23.0,44,0.00,,BKN230,0.00,VWS V14.01,2013-02-18 21:55:00,
2013-02-18 17:00:00,58.3,36.6,29.80,SW,222,9.6,12.2,44,0.00,,BKN230,0.00,VWS V14.01,2013-02-18 22:00:00,
2013-02-18 17:05:00,58.1,36.4,29.80,SW,221,21.8,27.7,44,0.00,,BKN230,0.00,VWS V14.01,2013-02-18 22:05:00,
2013-02-18 17:10:00,57.9,36.3,29.77,South,175,8.9,27.7,44,0.00,,BKN230,0.00,VWS V14.01,2013-02-18 22:10:00,
2013-02-18 17:15:00,57.9,36.3,29.77,SSW,200,20.3,25.8,44,0.00,,BKN230,0.00,VWS V14.01,2013-02-18 22:15:00,
2013-02-18 17:20:00,57.7,36.1,29.77,SSW,203,5.2,17.4,44,0.00,,BKN230,0.00,VWS V14.01,2013-02-18 22:20:00,
2013-02-18 17:25:00,57.7,36.1,29.77,SW,236,13.3,29.6,44,0.00,,BKN230,0.00,VWS V14.01,2013-02-18 22:25:00,
2013-02-18 17:30:00,57.7,36.1,29.77,SSW,194,8.9,17.4,44,0.00,,BKN230,0.00,VWS V14.01,2013-02-18 22:30:00,
2013-02-18 17:35:00,57.7,36.1,29.77,SSE,163,6.6,16.9,44,0.00,,OVC230,0.00,VWS V14.01,2013-02-18 22:35:00,
2013-02-18 17:40:00,57.7,36.1,29.77,SW,214,13.3,22.1,44,0.00,,OVC230,0.00,VWS V14.01,2013-02-18 22:40:00,
2013-02-18 17:45:00,57.4,35.8,29.77,WSW,238,9.6,16.0,44,0.00,,OVC230,0.00,VWS V14.01,2013-02-18 22:45:00,
2013-02-18 17:50:00,57.2,35.6,29.77,South,190,6.6,24.9,44,0.00,,OVC230,0.00,VWS V14.01,2013-02-18 22:50:00,
2013-02-18 17:55:00,57.2,35.6,29.77,SE,142,21.8,28.7,44,0.00,,OVC230,0.00,VWS V14.01,2013-02-18 22:55:00,
2013-02-18 18:00:00,56.8,36.2,29.77,South,178,8.1,17.4,46,0.00,,OVC230,0.00,VWS V14.01,2013-02-18 23:00:00,
2013-02-18 18:05:00,56.7,36.1,29.77,South,175,16.6,22.1,46,0.00,,OVC230,0.00,VWS V14.01,2013-02-18 23:05:00,
2013-02-18 18:10:00,56.5,35.9,29.77,South,187,13.7,18.3,46,0.00,,OVC230,0.00,VWS V14.01,2013-02-18 23:10:00,
2013-02-18 18:15:00,56.3,35.8,29.77,SSW,197,8.9,22.1,46,0.00,,OVC230,0.00,VWS V14.01,2013-02-18 23:15:00,
2013-02-18 18:20:00,55.9,35.4,29.77,South,176,3.7,17.4,46,0.00,,OVC230,0.00,VWS V14.01,2013-02-18 23:20:00,
2013-02-18 18:25:00,55.9,35.4,29.77,SW,217,6.6,8.5,46,0.00,,OVC230,0.00,VWS V14.01,2013-02-18 23:25:00,
2013-02-18 18:30:00,55.8,36.2,29.77,SSW,196,14.4,22.1,48,0.00,,OVC230,0.00,VWS V14.01,2013-02-18 23:30:00,
2013-02-18 18:36:00,55.6,37.8,29.77,SSW,195,10.3,29.6,51,0.00,,-RA,0.00,VWS V14.01,2013-02-18 23:36:00,
2013-02-18 18:41:00,55.2,38.3,29.77,SSE,168,14.4,34.3,53,0.00,,-RA,0.00,VWS V14.01,2013-02-18 23:41:00,
2013-02-18 18:46:00,54.9,38.7,29.77,South,171,38.4,48.9,54,0.00,,-RA,0.00,VWS V14.01,2013-02-18 23:46:00,
2013-02-18 18:51:00,54.9,41.0,29.77,SSW,197,17.3,22.1,60,0.00,,-RA,0.00,VWS V14.01,2013-02-18 23:51:00,
2013-02-18 18:56:00,54.1,41.8,29.77,SSW,201,17.3,22.1,63,0.00,,-RA,0.00,VWS V14.01,2013-02-18 23:56:00,
2013-02-18 19:01:00,53.4,41.1,29.77,South,173,17.3,27.7,63,0.00,,-RA,0.00,VWS V14.01,2013-02-19 00:01:00,
2013-02-18 19:06:00,53.2,40.9,29.77,South,181,14.4,18.3,63,0.00,,-RA,0.00,VWS V14.01,2013-02-19 00:06:00,
2013-02-18 19:11:00,53.2,40.9,29.77,SSW,201,15.1,46.0,63,0.00,,-RA,0.00,VWS V14.01,2013-02-19 00:11:00,
2013-02-18 19:16:00,53.1,41.5,29.77,SE,142,39.9,50.7,65,0.00,,-RA,0.00,VWS V14.01,2013-02-19 00:16:00,
2013-02-18 19:22:00,52.7,41.8,29.77,SSW,195,20.3,25.8,66,0.00,,-RA,0.00,VWS V14.01,2013-02-19 00:22:00,
2013-02-18 19:27:00,52.5,41.6,29.77,SSE,148,21.0,31.5,66,0.00,,-RA,0.00,VWS V14.01,2013-02-19 00:27:00,
2013-02-18 19:32:00,52.2,41.9,29.77,SSW,193,10.3,29.6,68,0.00,,-RA,0.00,VWS V14.01,2013-02-19 00:32:00,
2013-02-18 19:37:00,51.6,43.3,29.77,SE,141,15.1,19.3,73,0.00,,-RA,0.00,VWS V14.01,2013-02-19 00:37:00,
2013-02-18 19:42:00,51.3,44.7,29.77,SSW,198,20.3,25.8,78,0.00,,-RA,0.00,VWS V14.01,2013-02-19 00:42:00,
2013-02-18 19:47:00,50.7,45.3,29.77,South,186,10.3,41.3,82,0.00,,-RA,0.00,VWS V14.01,2013-02-19 00:47:00,
2013-02-18 19:52:00,50.2,45.8,29.77,SSW,202,10.3,17.4,85,0.00,,-RA,0.00,VWS V14.01,2013-02-19 00:52:00,
2013-02-18 19:57:00,49.6,45.8,29.77,SSW,203,8.9,23.0,87,0.00,,-RA,0.00,VWS V14.01,2013-02-19 00:57:00,
2013-02-18 20:02:00,49.3,46.5,29.77,SSE,166,17.3,22.1,90,0.00,,-RA,0.00,VWS V14.01,2013-02-19 01:02:00,
2013-02-18 20:07:00,48.7,47.0,29.77,SSW,202,20.3,27.7,94,0.00,,-RA,0.00,VWS V14.01,2013-02-19 01:07:00,
2013-02-18 20:12:00,48.4,48.0,29.74,South,171,13.7,31.5,99,0.04,,-RA,0.04,VWS V14.01,2013-02-19 01:12:00,
2013-02-18 20:17:00,48.0,48.0,29.74,South,172,18.1,23.0,100,0.04,,-RA,0.04,VWS V14.01,2013-02-19 01:17:00,
2013-02-18 20:23:00,47.7,47.7,29.74,SSE,158,9.6,17.4,100,0.04,,-RA,0.04,VWS V14.01,2013-02-19 01:23:00,
2013-02-18 20:28:00,47.5,47.5,29.74,SSE,167,13.3,16.9,100,0.08,,-RA,0.08,VWS V14.01,2013-02-19 01:28:00,
2013-02-18 20:33:00,47.3,47.3,29.74,South,180,9.6,22.1,100,0.08,,-RA,0.08,VWS V14.01,2013-02-19 01:33:00,
2013-02-18 20:38:00,47.1,47.1,29.74,South,181,18.1,23.0,100,0.08,,-RA,0.08,VWS V14.01,2013-02-19 01:38:00,
2013-02-18 20:43:00,46.9,46.9,29.74,SSW,205,12.5,16.0,100,0.08,,OVC075,0.08,VWS V14.01,2013-02-19 01:43:00,
2013-02-18 20:49:00,46.9,46.9,29.74,South,191,13.7,17.4,100,0.12,,OVC075,0.12,VWS V14.01,2013-02-19 01:49:00,
2013-02-18 20:54:00,46.9,46.9,29.74,SSE,165,10.3,18.3,100,0.12,,OVC075,0.12,VWS V14.01,2013-02-19 01:54:00,
2013-02-18 20:59:00,46.8,46.8,29.71,South,174,5.9,13.2,100,0.12,,OVC075,0.12,VWS V14.01,2013-02-19 01:59:00,
2013-02-18 21:04:00,46.8,46.8,29.71,South,181,10.3,16.9,100,0.12,,OVC075,0.12,VWS V14.01,2013-02-19 02:04:00,
2013-02-18 21:09:00,46.8,46.8,29.71,SSE,162,8.9,11.3,100,0.12,,OVC075,0.12,VWS V14.01,2013-02-19 02:09:00,
2013-02-18 21:14:00,46.6,46.6,29.71,South,171,8.9,16.9,100,0.08,,OVC075,0.12,VWS V14.01,2013-02-19 02:14:00,
2013-02-18 21:19:00,46.6,46.6,29.71,South,171,5.9,10.3,100,0.08,,OVC075,0.12,VWS V14.01,2013-02-19 02:19:00,
2013-02-18 21:24:00,46.6,46.6,29.71,South,173,8.9,16.9,100,0.08,,OVC075,0.12,VWS V14.01,2013-02-19 02:24:00,
2013-02-18 21:29:00,46.8,46.8,29.71,SSE,161,9.6,27.7,100,0.04,,OVC075,0.12,VWS V14.01,2013-02-19 02:29:00,
2013-02-18 21:34:00,46.8,46.8,29.71,South,172,28.1,35.7,100,0.08,,OVC075,0.16,VWS V14.01,2013-02-19 02:34:00,
2013-02-18 21:39:00,46.8,46.8,29.71,SSE,162,10.3,26.8,100,0.08,,-RA,0.16,VWS V14.01,2013-02-19 02:39:00,
2013-02-18 21:44:00,46.8,46.8,29.71,South,183,13.7,23.0,100,0.08,,-RA,0.16,VWS V14.01,2013-02-19 02:44:00,
2013-02-18 21:49:00,46.8,46.8,29.71,SSE,161,10.3,24.9,100,0.04,,-RA,0.16,VWS V14.01,2013-02-19 02:49:00,
2013-02-18 21:54:00,46.8,46.8,29.71,SW,227,16.6,25.8,100,0.04,,-RA,0.16,VWS V14.01,2013-02-19 02:54:00,
2013-02-18 22:00:00,46.9,46.9,29.68,South,174,16.6,27.7,100,0.04,,-RA,0.16,VWS V14.01,2013-02-19 03:00:00,
2013-02-18 22:05:00,46.9,46.9,29.68,SSE,162,25.5,35.2,100,0.04,,-RA,0.16,VWS V14.01,2013-02-19 03:05:00,
2013-02-18 22:10:00,46.9,46.9,29.68,South,178,28.8,36.6,100,0.04,,-RA,0.16,VWS V14.01,2013-02-19 03:10:00,
2013-02-18 22:15:00,46.9,46.9,29.71,South,178,14.4,18.3,100,0.04,,-RA,0.16,VWS V14.01,2013-02-19 03:15:00,
2013-02-18 22:20:00,46.9,46.9,29.71,South,169,9.6,16.9,100,0.04,,-RA,0.16,VWS V14.01,2013-02-19 03:20:00,
2013-02-18 22:25:00,46.9,46.9,29.68,South,170,10.3,13.2,100,0.08,,-RA,0.20,VWS V14.01,2013-02-19 03:25:00,
2013-02-18 22:30:00,46.8,46.8,29.68,SSW,198,18.1,23.0,100,0.08,,-RA,0.20,VWS V14.01,2013-02-19 03:30:00,
2013-02-18 22:36:00,46.8,46.8,29.68,SSE,158,13.3,24.0,100,0.04,,-RA,0.20,VWS V14.01,2013-02-19 03:36:00,
2013-02-18 22:41:00,46.8,46.8,29.68,South,182,13.7,17.4,100,0.04,,-RA,0.20,VWS V14.01,2013-02-19 03:41:00,
2013-02-18 22:46:00,46.6,46.6,29.68,SSW,200,12.5,23.0,100,0.04,,-RA,0.20,VWS V14.01,2013-02-19 03:46:00,
2013-02-18 22:51:00,46.6,46.6,29.68,SSE,167,14.4,18.3,100,0.04,,-RA,0.20,VWS V14.01,2013-02-19 03:51:00,
2013-02-18 22:56:00,46.8,46.8,29.68,SSW,210,10.3,16.9,100,0.08,,RA,0.24,VWS V14.01,2013-02-19 03:56:00,
2013-02-18 23:01:00,46.8,46.8,29.68,SSW,194,24.7,32.4,100,0.08,,RA,0.24,VWS V14.01,2013-02-19 04:01:00,
2013-02-18 23:07:00,46.6,46.6,29.68,SSE,148,8.9,14.1,100,0.08,,RA,0.24,VWS V14.01,2013-02-19 04:07:00,
2013-02-18 23:12:00,46.6,46.6,29.68,South,175,8.9,12.2,100,0.08,,RA,0.24,VWS V14.01,2013-02-19 04:12:00,
2013-02-18 23:17:00,46.6,46.6,29.68,South,176,17.3,22.1,100,0.08,,RA,0.24,VWS V14.01,2013-02-19 04:17:00,
2013-02-18 23:22:00,46.6,46.6,29.68,South,186,21.0,32.4,100,0.08,,RA,0.24,VWS V14.01,2013-02-19 04:22:00,
2013-02-18 23:28:00,46.6,46.6,29.65,South,191,18.1,35.2,100,0.04,,RA,0.24,VWS V14.01,2013-02-19 04:28:00,
2013-02-18 23:33:00,46.6,46.6,29.65,South,185,28.1,35.7,100,0.04,,RA,0.24,VWS V14.01,2013-02-19 04:33:00,
2013-02-18 23:38:00,46.8,46.8,29.65,South,174,14.4,31.5,100,0.04,,-RA,0.24,VWS V14.01,2013-02-19 04:38:00,
2013-02-18 23:43:00,46.8,46.8,29.65,South,180,17.3,23.0,100,0.04,,-RA,0.24,VWS V14.01,2013-02-19 04:43:00,
2013-02-18 23:48:00,46.8,46.8,29.65,South,178,18.1,46.0,100,0.04,,-RA,0.24,VWS V14.01,2013-02-19 04:48:00,
2013-02-18 23:53:00,47.1,47.1,29.65,South,178,14.4,23.0,100,0.04,,-RA,0.24,VWS V14.01,2013-02-19 04:53:00,
2013-02-18 23:59:00,47.1,47.1,29.65,SSW,198,21.0,26.8,100,0.00,,-RA,0.00,VWS V14.01,2013-02-19 04:59:00,